Contract 0xa96f3414334f5a0a529ff5d9d8ea95f42147b8c9 3

 

Contract Overview

RiskMoon: Old RISKMOON Token
Balance:
23.949618717100049925 BNB

BNB Value:
$9,876.82 (@ $412.40/BNB)

Token:
 
Txn Hash Method
Block
From
To
Value [Txn Fee]
0x5110914ff0e072719144400965e57adfdd4f7a077fb8bca09ddcb7b763221fc8Approve109866642021-09-17 7:11:333 hrs 17 mins ago0x33b9070b5ed701453f535448558f9c2832bf2993 IN  RiskMoon: Old RISKMOON Token0 BNB0.00022274
0xedfd2f0afd2b97892eec746ace320eafb93e450bba3931f3c70fd18b3e52ada3Transfer109840712021-09-17 5:01:245 hrs 27 mins ago0x9a387263cf1e2844e59571c6028d05bbdd7f59c2 IN  RiskMoon: Old RISKMOON Token0 BNB0.00051608
0x5cc566d572bce9e77643d8879884cbaae8d3e7eec91b20bfb79e9131b1281c33Approve109771832021-09-16 23:16:5711 hrs 11 mins agoFake_Phishing47 IN  RiskMoon: Old RISKMOON Token0 BNB0.00022274
0x3e562e5e15b84b618c156fc9e24a588c6c1f8a6432b9048ec5874888d537761bTransfer109754892021-09-16 21:52:1412 hrs 36 mins ago0xa8daa12f92ec3f76a1b1555e7ad7c0128512c88b IN  RiskMoon: Old RISKMOON Token0 BNB0.00051608
0x6200262bbaa903f2355ac206a1abfed3a066a4afd7921188e873321e3bddfc84Approve109740352021-09-16 20:39:3213 hrs 49 mins ago0x3da4fc8ca6c6d1633a06f4fb61a175fce03d9337 IN  RiskMoon: Old RISKMOON Token0 BNB0.00022274
0xb8a78a4cc8dc2cbbaca7c4224eb3d272b274cff4be06caa1a16d7d2e2b179d55Transfer109718302021-09-16 18:49:1715 hrs 39 mins ago0xf3509c30b846cb5e22527b5356b023d73d206ba8 IN  RiskMoon: Old RISKMOON Token0 BNB0.0005159
0xfd903bcdcfc504f4321e02251d4249d661bb0646a1bc868a30e06d168fa5571fApprove109716582021-09-16 18:40:4115 hrs 48 mins ago0x4e963e5b19c8c3ba4ccd7a2abd50f16e82ab02b3 IN  RiskMoon: Old RISKMOON Token0 BNB0.00022274
0x4ae88dcb0f0cedc42528b12e317ccecb7a561a3fd9a785354af1c74d17666615Approve109714892021-09-16 18:32:1415 hrs 56 mins ago0x8a539a14a86032a8cd33b02ce52f751c8ef3e0c2 IN  RiskMoon: Old RISKMOON Token0 BNB0.00012482
0x617836090047a05c8b94228029f61a650149a7e28fb070912f38c866cf9c04b8Approve109714802021-09-16 18:31:4715 hrs 57 mins ago0x8a539a14a86032a8cd33b02ce52f751c8ef3e0c2 IN  RiskMoon: Old RISKMOON Token0 BNB0.00012482
0xe27491ef449fd6754954b127c6d211167e80339435b8b627f7c89d88fc400a84Approve109714692021-09-16 18:31:1415 hrs 57 mins ago0x8a539a14a86032a8cd33b02ce52f751c8ef3e0c2 IN  RiskMoon: Old RISKMOON Token0 BNB0.00012482
0xea5dbfd52120b9a02c815750e65451f7bc2a63d075bc5fa3e771f6060b95d376Approve109714532021-09-16 18:30:2615 hrs 58 mins ago0x8a539a14a86032a8cd33b02ce52f751c8ef3e0c2 IN  RiskMoon: Old RISKMOON Token0 BNB0.00007291
0x41505f6c294a2bf340e2e9ed58e8efe8c4f28faa0d40803c29b27bdb740674dcApprove109714462021-09-16 18:30:0515 hrs 58 mins ago0x8a539a14a86032a8cd33b02ce52f751c8ef3e0c2 IN  RiskMoon: Old RISKMOON Token0 BNB0.00007291
0x787a71a4dbae2de30a4e9d79c957e5dde7291b4781098c50170595d05c8920d5Approve109714422021-09-16 18:29:5315 hrs 58 mins ago0x8a539a14a86032a8cd33b02ce52f751c8ef3e0c2 IN  RiskMoon: Old RISKMOON Token0 BNB0.00007291
0x383f9dc64e32a15a7d8353d0d680e3f3d9ae690b85d0853e117b408880fb9327Approve109703012021-09-16 17:32:4416 hrs 56 mins ago0x61f02856ce9b365142be38f2418fd6908a24cb8d IN  RiskMoon: Old RISKMOON Token0 BNB0.00022274
0xe2db278e46f6c25cfff1da91aaaf330884827479f1d4223d9490c67e340bfd24Approve109695912021-09-16 16:56:3717 hrs 32 mins ago0x554911938c4643349d14ffa767122c4a0d354e5d IN  RiskMoon: Old RISKMOON Token0 BNB0.000267288
0x2ca01e5b84286d69fd7f81c832914b56afbf7f99808fd70fe06ca8e537aa889dApprove109643182021-09-16 12:32:2821 hrs 56 mins ago0xa622157443891c8cc0ce3c4d5c8d11fa4e39ee9d IN  RiskMoon: Old RISKMOON Token0 BNB0.00022274
0xdd51969428a5679511549fe59e65342c631a8999491c1f30da97d505cf1928d5Approve109633302021-09-16 11:42:1722 hrs 46 mins ago0x0a0ebacda4dbd787d94799a01ea24ad0c76bb0f2 IN  RiskMoon: Old RISKMOON Token0 BNB0.00089096
0xd0cd768b1f8f7eb0a24ecb38bbcb808248ee1dbfa621b5b86bb663ee53f44920Approve109628922021-09-16 11:20:2223 hrs 8 mins ago0x0a0ebacda4dbd787d94799a01ea24ad0c76bb0f2 IN  RiskMoon: Old RISKMOON Token0 BNB0.00022268
0xd407f0827c802a8cd16ee082863d4311d4156dbc4ec57bd31dff6773bffc8e59Approve109628372021-09-16 11:17:3723 hrs 11 mins ago0x0a0ebacda4dbd787d94799a01ea24ad0c76bb0f2 IN  RiskMoon: Old RISKMOON Token0 BNB0.00022274
0xb1f00365bc35c15fe2378a268c5e731d225ec49f492b919bb738607c5aa2c59aApprove109627222021-09-16 11:11:5223 hrs 16 mins ago0x0a0ebacda4dbd787d94799a01ea24ad0c76bb0f2 IN  RiskMoon: Old RISKMOON Token0 BNB0.00022274
0xe1b9bd075bc1c13b392f08718d7f32ac6584e9eea1bd5b1fc085e28f788b2506Approve109627032021-09-16 11:10:5523 hrs 17 mins ago0x3821f6da5e5bc9bd9c2c627b6f18c2a900a2e44d IN  RiskMoon: Old RISKMOON Token0 BNB0.00022274
0x255a13bb4baa2aa09d445842fa34b6ed64b58c0075bacced66f59f99fa8bf5c1Approve109623162021-09-16 10:51:3423 hrs 37 mins ago0x8d64b8417fb5c22bd0bf819f5523abd73acd120c IN  RiskMoon: Old RISKMOON Token0 BNB0.00007288
0xe5756d5c6d6326d8f6f3ecde983b9eb1be6a2298db4698a102e30dea7b5d79d4Transfer109601382021-09-16 9:01:381 day 1 hr ago0x907ab15446607901ab1e7a0bd5f652782a73f8a8 IN  RiskMoon: Old RISKMOON Token0 BNB0.0005264016
0x7a946fbb8a97990cd5cbfd69b51f9fea3ef477840f5bb149a49be6bcae851e6bApprove109591722021-09-16 8:13:201 day 2 hrs ago0x8f9ceb74b3675e747d2e8c7b7ee41e46c56d6122 IN  RiskMoon: Old RISKMOON Token0 BNB0.00022274
0x3d9285ba95427c204262aaf8eff8d5e659f594e39101b0fc89ecd333d991c873Transfer109530492021-09-16 3:07:021 day 7 hrs ago0xb43ea821bb2a8f5456d40e15677b651590eadf24 IN  RiskMoon: Old RISKMOON Token0 BNB0.00051602
[ Download CSV Export 

OVERVIEW

Riskmoon has been rebranded to Deepspace and migrated to 0xf275e1AC303a4C9D987a2c48b8E555A77FeC3F1C .

Latest 25 internal transaction
Parent Txn Hash Block From To Value
0x943d563bd7d74626bfa948b32959734b2ece34d9f3a4de13933ab06fc7c90fa6107236112021-09-08 2:38:249 days 7 hrs ago PancakeSwap: Router RiskMoon: Old RISKMOON Token0.020567657597793241 BNB
0x943d563bd7d74626bfa948b32959734b2ece34d9f3a4de13933ab06fc7c90fa6107236112021-09-08 2:38:249 days 7 hrs ago RiskMoon: Old RISKMOON Token PancakeSwap: Router0.403771650169967034 BNB
0x943d563bd7d74626bfa948b32959734b2ece34d9f3a4de13933ab06fc7c90fa6107236112021-09-08 2:38:249 days 7 hrs ago PancakeSwap: Router RiskMoon: Old RISKMOON Token0.403771650169967034 BNB
0x64132584e890ae44a10ebe3b0b43af70433dd37f21b7a1356d8941d9646ad7da103851452021-08-27 4:45:0021 days 5 hrs ago RiskMoon: Old RISKMOON Token PancakeSwap: Router0.388678975349296853 BNB
0x64132584e890ae44a10ebe3b0b43af70433dd37f21b7a1356d8941d9646ad7da103851452021-08-27 4:45:0021 days 5 hrs ago PancakeSwap: Router RiskMoon: Old RISKMOON Token0.388678975349296853 BNB
0x93b7de1d98c402d81f8d471a4b89db0380f4d37c19f393af480890da26f3fd83103172852021-08-24 20:02:2523 days 14 hrs ago RiskMoon: Old RISKMOON Token PancakeSwap: Router0.393212963450921819 BNB
0x93b7de1d98c402d81f8d471a4b89db0380f4d37c19f393af480890da26f3fd83103172852021-08-24 20:02:2523 days 14 hrs ago PancakeSwap: Router RiskMoon: Old RISKMOON Token0.393212963450921819 BNB
0x5344a3ffacf6c76500a2340a19f145df5c70d08c20b61a4d773674df0740b375102938142021-08-24 0:22:3524 days 10 hrs ago RiskMoon: Old RISKMOON Token PancakeSwap: Router0.389014522014829315 BNB
0x5344a3ffacf6c76500a2340a19f145df5c70d08c20b61a4d773674df0740b375102938142021-08-24 0:22:3524 days 10 hrs ago PancakeSwap: Router RiskMoon: Old RISKMOON Token0.389014522014829315 BNB
0x83c937a8e89aea36e77798b53d812caa6869b3175ada7aaa396bbcb38f87a79a102928292021-08-23 23:33:2024 days 10 hrs ago RiskMoon: Old RISKMOON Token PancakeSwap: Router0.389653223909807986 BNB
0x83c937a8e89aea36e77798b53d812caa6869b3175ada7aaa396bbcb38f87a79a102928292021-08-23 23:33:2024 days 10 hrs ago PancakeSwap: Router RiskMoon: Old RISKMOON Token0.389653223909807986 BNB
0x51c9dbd6d4e75b4833b16add1193b57fd8d550575ce0af7a3cdc3c3fa7f6d0ed102927812021-08-23 23:30:5624 days 10 hrs ago RiskMoon: Old RISKMOON Token PancakeSwap: Router0.389699234374490957 BNB
0x51c9dbd6d4e75b4833b16add1193b57fd8d550575ce0af7a3cdc3c3fa7f6d0ed102927812021-08-23 23:30:5624 days 10 hrs ago PancakeSwap: Router RiskMoon: Old RISKMOON Token0.389699234374490957 BNB
0xd62b06f615eda46a80f0830b8f73837257d9d48acb1baa5981599c2e91804818102926952021-08-23 23:26:3824 days 11 hrs ago RiskMoon: Old RISKMOON Token PancakeSwap: Router0.389986030765318842 BNB
0xd62b06f615eda46a80f0830b8f73837257d9d48acb1baa5981599c2e91804818102926952021-08-23 23:26:3824 days 11 hrs ago PancakeSwap: Router RiskMoon: Old RISKMOON Token0.389986030765318842 BNB
0x234660858590f7fafc88a5bb362182a7a198952569631b5f39551a959a3e3427102926872021-08-23 23:26:1424 days 11 hrs ago RiskMoon: Old RISKMOON Token PancakeSwap: Router0.390323456033760703 BNB
0x234660858590f7fafc88a5bb362182a7a198952569631b5f39551a959a3e3427102926872021-08-23 23:26:1424 days 11 hrs ago PancakeSwap: Router RiskMoon: Old RISKMOON Token0.390323456033760703 BNB
0xad13800e9e345f19cca12265bae6e15f2b07cc2aef129b083c04ddd657f39b35102926142021-08-23 23:22:3524 days 11 hrs ago RiskMoon: Old RISKMOON Token PancakeSwap: Router0.390660693823741693 BNB
0xad13800e9e345f19cca12265bae6e15f2b07cc2aef129b083c04ddd657f39b35102926142021-08-23 23:22:3524 days 11 hrs ago PancakeSwap: Router RiskMoon: Old RISKMOON Token0.390660693823741693 BNB
0x3b55b5a90424ae240007b55cba7894e39e2bd8d061b54ffc663421fd468da676102924692021-08-23 23:15:2024 days 11 hrs ago RiskMoon: Old RISKMOON Token PancakeSwap: Router0.390998903115947742 BNB
0x3b55b5a90424ae240007b55cba7894e39e2bd8d061b54ffc663421fd468da676102924692021-08-23 23:15:2024 days 11 hrs ago PancakeSwap: Router RiskMoon: Old RISKMOON Token0.390998903115947742 BNB
0x8287efd5717e18b284dabf4edf749221e3c92fc9784bcb3e0a64da3a516c44fb102924282021-08-23 23:13:1724 days 11 hrs ago RiskMoon: Old RISKMOON Token PancakeSwap: Router0.391248159157136521 BNB
0x8287efd5717e18b284dabf4edf749221e3c92fc9784bcb3e0a64da3a516c44fb102924282021-08-23 23:13:1724 days 11 hrs ago PancakeSwap: Router RiskMoon: Old RISKMOON Token0.391248159157136521 BNB
0x05303bdddd151c427202c02ae10dd29912ecc9074daf3048a86d9909fad6d42f102923742021-08-23 23:10:3524 days 11 hrs ago RiskMoon: Old RISKMOON Token PancakeSwap: Router0.391587010583002153 BNB
0x05303bdddd151c427202c02ae10dd29912ecc9074daf3048a86d9909fad6d42f102923742021-08-23 23:10:3524 days 11 hrs ago PancakeSwap: Router RiskMoon: Old RISKMOON Token0.391587010583002153 BNB
[ Download CSV Export 
Loading

Contract Source Code Verified (Exact Match)

Contract Name:
RiskMoon

Compiler Version
v0.6.12+commit.27d51765

Optimization Enabled:
No with 200 runs

Other Settings:
default evmVersion, Unlicense license

Contract Source Code (Solidity)

/**
 *Submitted for verification at BscScan.com on 2021-03-26
*/

/**
─────────────────
Medium:
https://medium.com/@riskmoonbsc

Website : 
http://riskmoon.com/

Twitter:
https://twitter.com/RISKMOONBSC

Telegram:
https://t.me/RISKMOON

▒▒▒▒▒▒▒▒▒▒▒▒▒▒▒▒▒▒▒▒▒▒▒▒▒▒████████████▒▒▒▒▒▒▒▒▒▒▒▒▒▒▒▒▒▒▒▒▒▒▒▒▒▒
▒▒▒▒▒▒▒▒▒▒▒▒▒▒▒▒▒▒▒▒██████▒▒▒▒░░░░    ██████▒▒▒▒▒▒▒▒▒▒▒▒▒▒▒▒▒▒▒▒
▒▒▒▒▒▒▒▒▒▒▒▒▒▒▒▒████░░░░░░░░░░░░░░        ░░████▒▒▒▒▒▒▒▒▒▒▒▒▒▒▒▒
▒▒▒▒▒▒▒▒▒▒▒▒████  ▒▒░░░░    ░░░░    ░░  ░░░░░░░░████▒▒▒▒▒▒▒▒▒▒▒▒
▒▒▒▒▒▒▒▒▒▒██    ░░░░░░░░░░░░      ░░░░░░░░▒▒▒▒▒▒░░▒▒██▒▒▒▒▒▒▒▒▒▒
▒▒▒▒▒▒▒▒██    ░░░░░░▒▒▒▒▒▒░░░░░░  ░░░░░░░░▒▒▒▒▒▒░░▒▒░░██▒▒▒▒▒▒▒▒
▒▒▒▒▒▒██        ░░░░▒▒▒▒░░▒▒▒▒░░░░░░░░░░░░▒▒▒▒▒▒░░▒▒░░▒▒██▒▒▒▒▒▒
▒▒▒▒▒▒██  ░░  ░░░░░░░░▒▒▒▒░░░░░░░░░░░░░░▒▒▒▒▒▒░░░░▒▒▒▒▒▒██▒▒▒▒▒▒
▒▒▒▒██    ░░  ░░░░░░░░░░▒▒░░░░░░▒▒▒▒░░▒▒▒▒▒▒▒▒▒▒▒▒▒▒▒▒▒▒▒▒██▒▒▒▒
▒▒▒▒██            ░░░░▒▒░░░░▒▒▒▒▓▓▓▓▒▒░░▒▒▒▒▓▓▒▒▒▒▓▓▒▒▓▓▓▓██▓▓▒▒
▒▒██    ░░░░░░░░░░░░░░░░░░░░▒▒▒▒▒▒▓▓▓▓▒▒▒▒▒▒▒▒▒▒▓▓▓▓▒▒▓▓▓▓▓▓██▒▒
▒▒██  ▒▒░░░░░░░░░░░░░░▒▒░░░░▒▒▒▒▓▓▓▓▒▒▒▒▒▒▓▓▓▓▓▓▓▓▒▒▒▒▓▓▓▓▓▓██▒▒
▒▒██▒▒░░░░▒▒▒▒░░▒▒░░▒▒▒▒▒▒░░▒▒▒▒▒▒▒▒▒▒▒▒▓▓▓▓▓▓▓▓▓▓▓▓▓▓▓▓██▓▓██▓▓
██  ░░▒▒░░▒▒▒▒░░▒▒░░▒▒▒▒▒▒▒▒▓▓▓▓████▓▓▒▒▓▓▓▓▓▓▓▓▓▓▓▓▓▓▓▓▓▓▓▓████
██    ░░░░▒▒▒▒▒▒░░▒▒▒▒▓▓▓▓▒▒▓▓████▒▒▓▓▓▓▓▓▓▓▓▓▓▓▒▒▓▓▓▓▓▓▓▓██████
██    ░░░░▒▒▒▒▒▒▒▒░░▒▒▓▓▒▒▓▓▓▓▒▒░░▒▒▒▒▓▓▒▒▒▒▒▒▒▒▒▒▒▒▒▒▓▓▓▓██████
██  ░░░░░░░░░░▒▒▒▒▒▒░░▒▒▒▒▒▒▓▓▒▒▒▒▒▒░░▒▒▓▓▓▓▒▒▒▒▒▒▓▓██▓▓▓▓██████
██░░  ░░░░░░▒▒▒▒▒▒▒▒▒▒▒▒░░▒▒▓▓▒▒▒▒░░░░▓▓▓▓▓▓▓▓▒▒▓▓██▓▓▓▓▓▓▓▓████
██░░░░  ░░░░▒▒▒▒▓▓▓▓░░░░▒▒░░▒▒▒▒▒▒▒▒▒▒▓▓▓▓▓▓▓▓▓▓▓▓██▓▓▓▓████▓▓██
▒▒██░░░░░░░░▒▒▒▒▒▒▒▒▒▒▒▒▓▓░░░░▒▒▒▒▒▒▓▓▓▓▓▓▓▓▒▒▓▓▓▓▓▓▓▓▓▓▓▓▓▓██▓▓
▒▒██░░░░░░░░▒▒░░░░▒▒▓▓▒▒▒▒▓▓▒▒▒▒▒▒▒▒▓▓▓▓██▓▓▓▓▓▓▓▓▓▓▓▓▓▓▓▓▓▓██▓▓
▒▒██░░▒▒▒▒▒▒▒▒░░░░▒▒▒▒▓▓▓▓▒▒▒▒▒▒▒▒▒▒▓▓▓▓██▓▓▓▓▓▓██▓▓▓▓▒▒▓▓▓▓██▒▒
▒▒▒▒██▒▒▒▒▒▒▒▒▒▒▒▒▒▒▒▒▒▒▓▓▓▓▒▒▒▒▒▒▓▓▓▓▓▓▓▓██▓▓████▓▓▓▓▓▓▓▓██▓▓▒▒
▒▒▒▒██▒▒▒▒▒▒▒▒▒▒▒▒▓▓▓▓▒▒▒▒▒▒▓▓▓▓▓▓▓▓▓▓▓▓▓▓▓▓██▓▓▓▓████▓▓▓▓██▒▒▒▒
▒▒▒▒▓▓██▓▓▓▓▓▓▒▒▒▒▒▒▒▒▓▓▒▒▒▒▒▒▓▓▓▓▓▓▓▓▓▓████████████▓▓▓▓██▓▓▒▒▒▒
▒▒▒▒▒▒██▓▓▓▓▓▓▒▒▒▒▒▒▒▒▓▓▒▒▒▒▓▓▓▓▓▓▓▓▓▓████▓▓████▓▓▓▓▓▓▓▓██▒▒▒▒▒▒
▒▒▒▒▒▒▓▓██▓▓▓▓▓▓▒▒▒▒▒▒▓▓▓▓▓▓▓▓▒▒▓▓▓▓▓▓██▓▓▓▓▓▓▓▓▓▓▓▓▓▓██▓▓▒▒▒▒▒▒
▒▒▒▒▒▒▒▒▓▓██▓▓▓▓▓▓▓▓▓▓▓▓▓▓▓▓▒▒▒▒▓▓▓▓████▓▓▓▓▓▓▓▓▒▒▒▒██▓▓▒▒▒▒▒▒▒▒
▒▒▒▒▒▒▒▒▒▒▓▓████▓▓▓▓▓▓▓▓▓▓▓▓▒▒▓▓▓▓▓▓████████▓▓▓▓████▓▓▒▒▒▒▒▒▒▒▒▒
▒▒▒▒▒▒▒▒▒▒▒▒▒▒▓▓████▓▓▓▓▓▓▓▓▓▓▓▓▓▓██████████████▓▓▒▒▒▒▒▒▒▒▒▒▒▒▒▒
▒▒▒▒▒▒▒▒▒▒▒▒▒▒▒▒▒▒▓▓████████████████████████▓▓▒▒▒▒▒▒▒▒▒▒▒▒▒▒▒▒▒▒
▒▒▒▒▒▒▒▒▒▒▒▒▒▒▒▒▒▒▒▒▒▒▓▓▓▓████████████▓▓▓▓▒▒▒▒▒▒▒▒▒▒▒▒▒▒▒▒▒▒▒▒▒▒

 */
/**

/**
   #RiskMoon features:
   5% fee auto add to the liquidity pool to locked forever when selling
   10% fee auto distribute to all holders
 */

pragma solidity ^0.6.12;
// SPDX-License-Identifier: Unlicensed
interface IERC20 {

    function totalSupply() external view returns (uint256);

    /**
     * @dev Returns the amount of tokens owned by `account`.
     */
    function balanceOf(address account) external view returns (uint256);

    /**
     * @dev Moves `amount` tokens from the caller's account to `recipient`.
     *
     * Returns a boolean value indicating whether the operation succeeded.
     *
     * Emits a {Transfer} event.
     */
    function transfer(address recipient, uint256 amount) external returns (bool);

    /**
     * @dev Returns the remaining number of tokens that `spender` will be
     * allowed to spend on behalf of `owner` through {transferFrom}. This is
     * zero by default.
     *
     * This value changes when {approve} or {transferFrom} are called.
     */
    function allowance(address owner, address spender) external view returns (uint256);

    /**
     * @dev Sets `amount` as the allowance of `spender` over the caller's tokens.
     *
     * Returns a boolean value indicating whether the operation succeeded.
     *
     * IMPORTANT: Beware that changing an allowance with this method brings the risk
     * that someone may use both the old and the new allowance by unfortunate
     * transaction ordering. One possible solution to mitigate this race
     * condition is to first reduce the spender's allowance to 0 and set the
     * desired value afterwards:
     * https://github.com/ethereum/EIPs/issues/20#issuecomment-263524729
     *
     * Emits an {Approval} event.
     */
    function approve(address spender, uint256 amount) external returns (bool);

    /**
     * @dev Moves `amount` tokens from `sender` to `recipient` using the
     * allowance mechanism. `amount` is then deducted from the caller's
     * allowance.
     *
     * Returns a boolean value indicating whether the operation succeeded.
     *
     * Emits a {Transfer} event.
     */
    function transferFrom(address sender, address recipient, uint256 amount) external returns (bool);

    /**
     * @dev Emitted when `value` tokens are moved from one account (`from`) to
     * another (`to`).
     *
     * Note that `value` may be zero.
     */
    event Transfer(address indexed from, address indexed to, uint256 value);

    /**
     * @dev Emitted when the allowance of a `spender` for an `owner` is set by
     * a call to {approve}. `value` is the new allowance.
     */
    event Approval(address indexed owner, address indexed spender, uint256 value);
}



/**
 * @dev Wrappers over Solidity's arithmetic operations with added overflow
 * checks.
 *
 * Arithmetic operations in Solidity wrap on overflow. This can easily result
 * in bugs, because programmers usually assume that an overflow raises an
 * error, which is the standard behavior in high level programming languages.
 * `SafeMath` restores this intuition by reverting the transaction when an
 * operation overflows.
 *
 * Using this library instead of the unchecked operations eliminates an entire
 * class of bugs, so it's recommended to use it always.
 */
 
library SafeMath {
    /**
     * @dev Returns the addition of two unsigned integers, reverting on
     * overflow.
     *
     * Counterpart to Solidity's `+` operator.
     *
     * Requirements:
     *
     * - Addition cannot overflow.
     */
    function add(uint256 a, uint256 b) internal pure returns (uint256) {
        uint256 c = a + b;
        require(c >= a, "SafeMath: addition overflow");

        return c;
    }

    /**
     * @dev Returns the subtraction of two unsigned integers, reverting on
     * overflow (when the result is negative).
     *
     * Counterpart to Solidity's `-` operator.
     *
     * Requirements:
     *
     * - Subtraction cannot overflow.
     */
    function sub(uint256 a, uint256 b) internal pure returns (uint256) {
        return sub(a, b, "SafeMath: subtraction overflow");
    }

    /**
     * @dev Returns the subtraction of two unsigned integers, reverting with custom message on
     * overflow (when the result is negative).
     *
     * Counterpart to Solidity's `-` operator.
     *
     * Requirements:
     *
     * - Subtraction cannot overflow.
     */
    function sub(uint256 a, uint256 b, string memory errorMessage) internal pure returns (uint256) {
        require(b <= a, errorMessage);
        uint256 c = a - b;

        return c;
    }

    /**
     * @dev Returns the multiplication of two unsigned integers, reverting on
     * overflow.
     *
     * Counterpart to Solidity's `*` operator.
     *
     * Requirements:
     *
     * - Multiplication cannot overflow.
     */
    function mul(uint256 a, uint256 b) internal pure returns (uint256) {
        // Gas optimization: this is cheaper than requiring 'a' not being zero, but the
        // benefit is lost if 'b' is also tested.
        // See: https://github.com/OpenZeppelin/openzeppelin-contracts/pull/522
        if (a == 0) {
            return 0;
        }

        uint256 c = a * b;
        require(c / a == b, "SafeMath: multiplication overflow");

        return c;
    }

    /**
     * @dev Returns the integer division of two unsigned integers. Reverts on
     * division by zero. The result is rounded towards zero.
     *
     * Counterpart to Solidity's `/` operator. Note: this function uses a
     * `revert` opcode (which leaves remaining gas untouched) while Solidity
     * uses an invalid opcode to revert (consuming all remaining gas).
     *
     * Requirements:
     *
     * - The divisor cannot be zero.
     */
    function div(uint256 a, uint256 b) internal pure returns (uint256) {
        return div(a, b, "SafeMath: division by zero");
    }

    /**
     * @dev Returns the integer division of two unsigned integers. Reverts with custom message on
     * division by zero. The result is rounded towards zero.
     *
     * Counterpart to Solidity's `/` operator. Note: this function uses a
     * `revert` opcode (which leaves remaining gas untouched) while Solidity
     * uses an invalid opcode to revert (consuming all remaining gas).
     *
     * Requirements:
     *
     * - The divisor cannot be zero.
     */
    function div(uint256 a, uint256 b, string memory errorMessage) internal pure returns (uint256) {
        require(b > 0, errorMessage);
        uint256 c = a / b;
        // assert(a == b * c + a % b); // There is no case in which this doesn't hold

        return c;
    }

    /**
     * @dev Returns the remainder of dividing two unsigned integers. (unsigned integer modulo),
     * Reverts when dividing by zero.
     *
     * Counterpart to Solidity's `%` operator. This function uses a `revert`
     * opcode (which leaves remaining gas untouched) while Solidity uses an
     * invalid opcode to revert (consuming all remaining gas).
     *
     * Requirements:
     *
     * - The divisor cannot be zero.
     */
    function mod(uint256 a, uint256 b) internal pure returns (uint256) {
        return mod(a, b, "SafeMath: modulo by zero");
    }

    /**
     * @dev Returns the remainder of dividing two unsigned integers. (unsigned integer modulo),
     * Reverts with custom message when dividing by zero.
     *
     * Counterpart to Solidity's `%` operator. This function uses a `revert`
     * opcode (which leaves remaining gas untouched) while Solidity uses an
     * invalid opcode to revert (consuming all remaining gas).
     *
     * Requirements:
     *
     * - The divisor cannot be zero.
     */
    function mod(uint256 a, uint256 b, string memory errorMessage) internal pure returns (uint256) {
        require(b != 0, errorMessage);
        return a % b;
    }
}

abstract contract Context {
    function _msgSender() internal view virtual returns (address payable) {
        return msg.sender;
    }

    function _msgData() internal view virtual returns (bytes memory) {
        this; // silence state mutability warning without generating bytecode - see https://github.com/ethereum/solidity/issues/2691
        return msg.data;
    }
}


/**
 * @dev Collection of functions related to the address type
 */
library Address {
    /**
     * @dev Returns true if `account` is a contract.
     *
     * [IMPORTANT]
     * ====
     * It is unsafe to assume that an address for which this function returns
     * false is an externally-owned account (EOA) and not a contract.
     *
     * Among others, `isContract` will return false for the following
     * types of addresses:
     *
     *  - an externally-owned account
     *  - a contract in construction
     *  - an address where a contract will be created
     *  - an address where a contract lived, but was destroyed
     * ====
     */
    function isContract(address account) internal view returns (bool) {
        // According to EIP-1052, 0x0 is the value returned for not-yet created accounts
        // and 0xc5d2460186f7233c927e7db2dcc703c0e500b653ca82273b7bfad8045d85a470 is returned
        // for accounts without code, i.e. `keccak256('')`
        bytes32 codehash;
        bytes32 accountHash = 0xc5d2460186f7233c927e7db2dcc703c0e500b653ca82273b7bfad8045d85a470;
        // solhint-disable-next-line no-inline-assembly
        assembly { codehash := extcodehash(account) }
        return (codehash != accountHash && codehash != 0x0);
    }

    /**
     * @dev Replacement for Solidity's `transfer`: sends `amount` wei to
     * `recipient`, forwarding all available gas and reverting on errors.
     *
     * https://eips.ethereum.org/EIPS/eip-1884[EIP1884] increases the gas cost
     * of certain opcodes, possibly making contracts go over the 2300 gas limit
     * imposed by `transfer`, making them unable to receive funds via
     * `transfer`. {sendValue} removes this limitation.
     *
     * https://diligence.consensys.net/posts/2019/09/stop-using-soliditys-transfer-now/[Learn more].
     *
     * IMPORTANT: because control is transferred to `recipient`, care must be
     * taken to not create reentrancy vulnerabilities. Consider using
     * {ReentrancyGuard} or the
     * https://solidity.readthedocs.io/en/v0.5.11/security-considerations.html#use-the-checks-effects-interactions-pattern[checks-effects-interactions pattern].
     */
    function sendValue(address payable recipient, uint256 amount) internal {
        require(address(this).balance >= amount, "Address: insufficient balance");

        // solhint-disable-next-line avoid-low-level-calls, avoid-call-value
        (bool success, ) = recipient.call{ value: amount }("");
        require(success, "Address: unable to send value, recipient may have reverted");
    }

    /**
     * @dev Performs a Solidity function call using a low level `call`. A
     * plain`call` is an unsafe replacement for a function call: use this
     * function instead.
     *
     * If `target` reverts with a revert reason, it is bubbled up by this
     * function (like regular Solidity function calls).
     *
     * Returns the raw returned data. To convert to the expected return value,
     * use https://solidity.readthedocs.io/en/latest/units-and-global-variables.html?highlight=abi.decode#abi-encoding-and-decoding-functions[`abi.decode`].
     *
     * Requirements:
     *
     * - `target` must be a contract.
     * - calling `target` with `data` must not revert.
     *
     * _Available since v3.1._
     */
    function functionCall(address target, bytes memory data) internal returns (bytes memory) {
      return functionCall(target, data, "Address: low-level call failed");
    }

    /**
     * @dev Same as {xref-Address-functionCall-address-bytes-}[`functionCall`], but with
     * `errorMessage` as a fallback revert reason when `target` reverts.
     *
     * _Available since v3.1._
     */
    function functionCall(address target, bytes memory data, string memory errorMessage) internal returns (bytes memory) {
        return _functionCallWithValue(target, data, 0, errorMessage);
    }

    /**
     * @dev Same as {xref-Address-functionCall-address-bytes-}[`functionCall`],
     * but also transferring `value` wei to `target`.
     *
     * Requirements:
     *
     * - the calling contract must have an ETH balance of at least `value`.
     * - the called Solidity function must be `payable`.
     *
     * _Available since v3.1._
     */
    function functionCallWithValue(address target, bytes memory data, uint256 value) internal returns (bytes memory) {
        return functionCallWithValue(target, data, value, "Address: low-level call with value failed");
    }

    /**
     * @dev Same as {xref-Address-functionCallWithValue-address-bytes-uint256-}[`functionCallWithValue`], but
     * with `errorMessage` as a fallback revert reason when `target` reverts.
     *
     * _Available since v3.1._
     */
    function functionCallWithValue(address target, bytes memory data, uint256 value, string memory errorMessage) internal returns (bytes memory) {
        require(address(this).balance >= value, "Address: insufficient balance for call");
        return _functionCallWithValue(target, data, value, errorMessage);
    }

    function _functionCallWithValue(address target, bytes memory data, uint256 weiValue, string memory errorMessage) private returns (bytes memory) {
        require(isContract(target), "Address: call to non-contract");

        // solhint-disable-next-line avoid-low-level-calls
        (bool success, bytes memory returndata) = target.call{ value: weiValue }(data);
        if (success) {
            return returndata;
        } else {
            // Look for revert reason and bubble it up if present
            if (returndata.length > 0) {
                // The easiest way to bubble the revert reason is using memory via assembly

                // solhint-disable-next-line no-inline-assembly
                assembly {
                    let returndata_size := mload(returndata)
                    revert(add(32, returndata), returndata_size)
                }
            } else {
                revert(errorMessage);
            }
        }
    }
}

/**
 * @dev Contract module which provides a basic access control mechanism, where
 * there is an account (an owner) that can be granted exclusive access to
 * specific functions.
 *
 * By default, the owner account will be the one that deploys the contract. This
 * can later be changed with {transferOwnership}.
 *
 * This module is used through inheritance. It will make available the modifier
 * `onlyOwner`, which can be applied to your functions to restrict their use to
 * the owner.
 */
contract Ownable is Context {
    address private _owner;
    address private _previousOwner;
    uint256 private _lockTime;

    event OwnershipTransferred(address indexed previousOwner, address indexed newOwner);

    /**
     * @dev Initializes the contract setting the deployer as the initial owner.
     */
    constructor () internal {
        address msgSender = _msgSender();
        _owner = msgSender;
        emit OwnershipTransferred(address(0), msgSender);
    }

    /**
     * @dev Returns the address of the current owner.
     */
    function owner() public view returns (address) {
        return _owner;
    }

    /**
     * @dev Throws if called by any account other than the owner.
     */
    modifier onlyOwner() {
        require(_owner == _msgSender(), "Ownable: caller is not the owner");
        _;
    }

     /**
     * @dev Leaves the contract without owner. It will not be possible to call
     * `onlyOwner` functions anymore. Can only be called by the current owner.
     *
     * NOTE: Renouncing ownership will leave the contract without an owner,
     * thereby removing any functionality that is only available to the owner.
     */
    function renounceOwnership() public virtual onlyOwner {
        emit OwnershipTransferred(_owner, address(0));
        _owner = address(0);
    }

    /**
     * @dev Transfers ownership of the contract to a new account (`newOwner`).
     * Can only be called by the current owner.
     */
    function transferOwnership(address newOwner) public virtual onlyOwner {
        require(newOwner != address(0), "Ownable: new owner is the zero address");
        emit OwnershipTransferred(_owner, newOwner);
        _owner = newOwner;
    }

    function geUnlockTime() public view returns (uint256) {
        return _lockTime;
    }

    //Locks the contract for owner for the amount of time provided
    function lock(uint256 time) public virtual onlyOwner {
        _previousOwner = _owner;
        _owner = address(0);
        _lockTime = now + time;
        emit OwnershipTransferred(_owner, address(0));
    }
    
    //Unlocks the contract for owner when _lockTime is exceeds
    function unlock() public virtual {
        require(_previousOwner == msg.sender, "You don't have permission to unlock");
        require(now > _lockTime , "Contract is locked until 7 days");
        emit OwnershipTransferred(_owner, _previousOwner);
        _owner = _previousOwner;
    }
}

// pragma solidity >=0.5.0;

interface IUniswapV2Factory {
    event PairCreated(address indexed token0, address indexed token1, address pair, uint);

    function feeTo() external view returns (address);
    function feeToSetter() external view returns (address);

    function getPair(address tokenA, address tokenB) external view returns (address pair);
    function allPairs(uint) external view returns (address pair);
    function allPairsLength() external view returns (uint);

    function createPair(address tokenA, address tokenB) external returns (address pair);

    function setFeeTo(address) external;
    function setFeeToSetter(address) external;
}


// pragma solidity >=0.5.0;

interface IUniswapV2Pair {
    event Approval(address indexed owner, address indexed spender, uint value);
    event Transfer(address indexed from, address indexed to, uint value);

    function name() external pure returns (string memory);
    function symbol() external pure returns (string memory);
    function decimals() external pure returns (uint8);
    function totalSupply() external view returns (uint);
    function balanceOf(address owner) external view returns (uint);
    function allowance(address owner, address spender) external view returns (uint);

    function approve(address spender, uint value) external returns (bool);
    function transfer(address to, uint value) external returns (bool);
    function transferFrom(address from, address to, uint value) external returns (bool);

    function DOMAIN_SEPARATOR() external view returns (bytes32);
    function PERMIT_TYPEHASH() external pure returns (bytes32);
    function nonces(address owner) external view returns (uint);

    function permit(address owner, address spender, uint value, uint deadline, uint8 v, bytes32 r, bytes32 s) external;

    event Mint(address indexed sender, uint amount0, uint amount1);
    event Burn(address indexed sender, uint amount0, uint amount1, address indexed to);
    event Swap(
        address indexed sender,
        uint amount0In,
        uint amount1In,
        uint amount0Out,
        uint amount1Out,
        address indexed to
    );
    event Sync(uint112 reserve0, uint112 reserve1);

    function MINIMUM_LIQUIDITY() external pure returns (uint);
    function factory() external view returns (address);
    function token0() external view returns (address);
    function token1() external view returns (address);
    function getReserves() external view returns (uint112 reserve0, uint112 reserve1, uint32 blockTimestampLast);
    function price0CumulativeLast() external view returns (uint);
    function price1CumulativeLast() external view returns (uint);
    function kLast() external view returns (uint);

    function mint(address to) external returns (uint liquidity);
    function burn(address to) external returns (uint amount0, uint amount1);
    function swap(uint amount0Out, uint amount1Out, address to, bytes calldata data) external;
    function skim(address to) external;
    function sync() external;

    function initialize(address, address) external;
}

// pragma solidity >=0.6.2;

interface IUniswapV2Router01 {
    function factory() external pure returns (address);
    function WETH() external pure returns (address);

    function addLiquidity(
        address tokenA,
        address tokenB,
        uint amountADesired,
        uint amountBDesired,
        uint amountAMin,
        uint amountBMin,
        address to,
        uint deadline
    ) external returns (uint amountA, uint amountB, uint liquidity);
    function addLiquidityETH(
        address token,
        uint amountTokenDesired,
        uint amountTokenMin,
        uint amountETHMin,
        address to,
        uint deadline
    ) external payable returns (uint amountToken, uint amountETH, uint liquidity);
    function removeLiquidity(
        address tokenA,
        address tokenB,
        uint liquidity,
        uint amountAMin,
        uint amountBMin,
        address to,
        uint deadline
    ) external returns (uint amountA, uint amountB);
    function removeLiquidityETH(
        address token,
        uint liquidity,
        uint amountTokenMin,
        uint amountETHMin,
        address to,
        uint deadline
    ) external returns (uint amountToken, uint amountETH);
    function removeLiquidityWithPermit(
        address tokenA,
        address tokenB,
        uint liquidity,
        uint amountAMin,
        uint amountBMin,
        address to,
        uint deadline,
        bool approveMax, uint8 v, bytes32 r, bytes32 s
    ) external returns (uint amountA, uint amountB);
    function removeLiquidityETHWithPermit(
        address token,
        uint liquidity,
        uint amountTokenMin,
        uint amountETHMin,
        address to,
        uint deadline,
        bool approveMax, uint8 v, bytes32 r, bytes32 s
    ) external returns (uint amountToken, uint amountETH);
    function swapExactTokensForTokens(
        uint amountIn,
        uint amountOutMin,
        address[] calldata path,
        address to,
        uint deadline
    ) external returns (uint[] memory amounts);
    function swapTokensForExactTokens(
        uint amountOut,
        uint amountInMax,
        address[] calldata path,
        address to,
        uint deadline
    ) external returns (uint[] memory amounts);
    function swapExactETHForTokens(uint amountOutMin, address[] calldata path, address to, uint deadline)
        external
        payable
        returns (uint[] memory amounts);
    function swapTokensForExactETH(uint amountOut, uint amountInMax, address[] calldata path, address to, uint deadline)
        external
        returns (uint[] memory amounts);
    function swapExactTokensForETH(uint amountIn, uint amountOutMin, address[] calldata path, address to, uint deadline)
        external
        returns (uint[] memory amounts);
    function swapETHForExactTokens(uint amountOut, address[] calldata path, address to, uint deadline)
        external
        payable
        returns (uint[] memory amounts);

    function quote(uint amountA, uint reserveA, uint reserveB) external pure returns (uint amountB);
    function getAmountOut(uint amountIn, uint reserveIn, uint reserveOut) external pure returns (uint amountOut);
    function getAmountIn(uint amountOut, uint reserveIn, uint reserveOut) external pure returns (uint amountIn);
    function getAmountsOut(uint amountIn, address[] calldata path) external view returns (uint[] memory amounts);
    function getAmountsIn(uint amountOut, address[] calldata path) external view returns (uint[] memory amounts);
}



// pragma solidity >=0.6.2;

interface IUniswapV2Router02 is IUniswapV2Router01 {
    function removeLiquidityETHSupportingFeeOnTransferTokens(
        address token,
        uint liquidity,
        uint amountTokenMin,
        uint amountETHMin,
        address to,
        uint deadline
    ) external returns (uint amountETH);
    function removeLiquidityETHWithPermitSupportingFeeOnTransferTokens(
        address token,
        uint liquidity,
        uint amountTokenMin,
        uint amountETHMin,
        address to,
        uint deadline,
        bool approveMax, uint8 v, bytes32 r, bytes32 s
    ) external returns (uint amountETH);

    function swapExactTokensForTokensSupportingFeeOnTransferTokens(
        uint amountIn,
        uint amountOutMin,
        address[] calldata path,
        address to,
        uint deadline
    ) external;
    function swapExactETHForTokensSupportingFeeOnTransferTokens(
        uint amountOutMin,
        address[] calldata path,
        address to,
        uint deadline
    ) external payable;
    function swapExactTokensForETHSupportingFeeOnTransferTokens(
        uint amountIn,
        uint amountOutMin,
        address[] calldata path,
        address to,
        uint deadline
    ) external;
}


contract RiskMoon is Context, IERC20, Ownable {
    using SafeMath for uint256;
    using Address for address;

    mapping (address => uint256) private _rOwned;
    mapping (address => uint256) private _tOwned;
    mapping (address => mapping (address => uint256)) private _allowances;

    mapping (address => bool) private _isExcludedFromFee;

    mapping (address => bool) private _isExcluded;
    address[] private _excluded;
   
    uint256 private constant MAX = ~uint256(0);
    uint256 private _tTotal = 1000000000 * 10**6 * 10**9;
    uint256 private _rTotal = (MAX - (MAX % _tTotal));
    uint256 private _tFeeTotal;

    string private _name = "RiskMoon";
    string private _symbol = "RISKMOON";
    uint8 private _decimals = 9;
    
    uint256 public _taxFee = 5;
    uint256 private _previousTaxFee = _taxFee;
    
    uint256 public _liquidityFee = 5;
    uint256 private _previousLiquidityFee = _liquidityFee;

    IUniswapV2Router02 public immutable uniswapV2Router;
    address public immutable uniswapV2Pair;
    
    bool inSwapAndLiquify;
    bool public swapAndLiquifyEnabled = true;
    
    uint256 public _maxTxAmount = 5000000 * 10**6 * 10**9;
    uint256 private numTokensSellToAddToLiquidity = 500000 * 10**6 * 10**9;
    
    event MinTokensBeforeSwapUpdated(uint256 minTokensBeforeSwap);
    event SwapAndLiquifyEnabledUpdated(bool enabled);
    event SwapAndLiquify(
        uint256 tokensSwapped,
        uint256 ethReceived,
        uint256 tokensIntoLiqudity
    );
    
    modifier lockTheSwap {
        inSwapAndLiquify = true;
        _;
        inSwapAndLiquify = false;
    }
    
    constructor () public {
        _rOwned[_msgSender()] = _rTotal;
        
        IUniswapV2Router02 _uniswapV2Router = IUniswapV2Router02(0x05fF2B0DB69458A0750badebc4f9e13aDd608C7F);
         // Create a uniswap pair for this new token
        uniswapV2Pair = IUniswapV2Factory(_uniswapV2Router.factory())
            .createPair(address(this), _uniswapV2Router.WETH());

        // set the rest of the contract variables
        uniswapV2Router = _uniswapV2Router;
        
        //exclude owner and this contract from fee
        _isExcludedFromFee[owner()] = true;
        _isExcludedFromFee[address(this)] = true;
        
        emit Transfer(address(0), _msgSender(), _tTotal);
    }

    function name() public view returns (string memory) {
        return _name;
    }

    function symbol() public view returns (string memory) {
        return _symbol;
    }

    function decimals() public view returns (uint8) {
        return _decimals;
    }

    function totalSupply() public view override returns (uint256) {
        return _tTotal;
    }

    function balanceOf(address account) public view override returns (uint256) {
        if (_isExcluded[account]) return _tOwned[account];
        return tokenFromReflection(_rOwned[account]);
    }

    function transfer(address recipient, uint256 amount) public override returns (bool) {
        _transfer(_msgSender(), recipient, amount);
        return true;
    }

    function allowance(address owner, address spender) public view override returns (uint256) {
        return _allowances[owner][spender];
    }

    function approve(address spender, uint256 amount) public override returns (bool) {
        _approve(_msgSender(), spender, amount);
        return true;
    }

    function transferFrom(address sender, address recipient, uint256 amount) public override returns (bool) {
        _transfer(sender, recipient, amount);
        _approve(sender, _msgSender(), _allowances[sender][_msgSender()].sub(amount, "ERC20: transfer amount exceeds allowance"));
        return true;
    }

    function increaseAllowance(address spender, uint256 addedValue) public virtual returns (bool) {
        _approve(_msgSender(), spender, _allowances[_msgSender()][spender].add(addedValue));
        return true;
    }

    function decreaseAllowance(address spender, uint256 subtractedValue) public virtual returns (bool) {
        _approve(_msgSender(), spender, _allowances[_msgSender()][spender].sub(subtractedValue, "ERC20: decreased allowance below zero"));
        return true;
    }

    function isExcludedFromReward(address account) public view returns (bool) {
        return _isExcluded[account];
    }

    function totalFees() public view returns (uint256) {
        return _tFeeTotal;
    }

    function deliver(uint256 tAmount) public {
        address sender = _msgSender();
        require(!_isExcluded[sender], "Excluded addresses cannot call this function");
        (uint256 rAmount,,,,,) = _getValues(tAmount);
        _rOwned[sender] = _rOwned[sender].sub(rAmount);
        _rTotal = _rTotal.sub(rAmount);
        _tFeeTotal = _tFeeTotal.add(tAmount);
    }

    function reflectionFromToken(uint256 tAmount, bool deductTransferFee) public view returns(uint256) {
        require(tAmount <= _tTotal, "Amount must be less than supply");
        if (!deductTransferFee) {
            (uint256 rAmount,,,,,) = _getValues(tAmount);
            return rAmount;
        } else {
            (,uint256 rTransferAmount,,,,) = _getValues(tAmount);
            return rTransferAmount;
        }
    }

    function tokenFromReflection(uint256 rAmount) public view returns(uint256) {
        require(rAmount <= _rTotal, "Amount must be less than total reflections");
        uint256 currentRate =  _getRate();
        return rAmount.div(currentRate);
    }

    function excludeFromReward(address account) public onlyOwner() {
        // require(account != 0x7a250d5630B4cF539739dF2C5dAcb4c659F2488D, 'We can not exclude Uniswap router.');
        require(!_isExcluded[account], "Account is already excluded");
        if(_rOwned[account] > 0) {
            _tOwned[account] = tokenFromReflection(_rOwned[account]);
        }
        _isExcluded[account] = true;
        _excluded.push(account);
    }

    function includeInReward(address account) external onlyOwner() {
        require(_isExcluded[account], "Account is already excluded");
        for (uint256 i = 0; i < _excluded.length; i++) {
            if (_excluded[i] == account) {
                _excluded[i] = _excluded[_excluded.length - 1];
                _tOwned[account] = 0;
                _isExcluded[account] = false;
                _excluded.pop();
                break;
            }
        }
    }
        function _transferBothExcluded(address sender, address recipient, uint256 tAmount) private {
        (uint256 rAmount, uint256 rTransferAmount, uint256 rFee, uint256 tTransferAmount, uint256 tFee, uint256 tLiquidity) = _getValues(tAmount);
        _tOwned[sender] = _tOwned[sender].sub(tAmount);
        _rOwned[sender] = _rOwned[sender].sub(rAmount);
        _tOwned[recipient] = _tOwned[recipient].add(tTransferAmount);
        _rOwned[recipient] = _rOwned[recipient].add(rTransferAmount);        
        _takeLiquidity(tLiquidity);
        _reflectFee(rFee, tFee);
        emit Transfer(sender, recipient, tTransferAmount);
    }
    
        function excludeFromFee(address account) public onlyOwner {
        _isExcludedFromFee[account] = true;
    }
    
    function includeInFee(address account) public onlyOwner {
        _isExcludedFromFee[account] = false;
    }
    
    function setTaxFeePercent(uint256 taxFee) external onlyOwner() {
        _taxFee = taxFee;
    }
    
    function setLiquidityFeePercent(uint256 liquidityFee) external onlyOwner() {
        _liquidityFee = liquidityFee;
    }
   
    function setMaxTxPercent(uint256 maxTxPercent) external onlyOwner() {
        _maxTxAmount = _tTotal.mul(maxTxPercent).div(
            10**2
        );
    }

    function setSwapAndLiquifyEnabled(bool _enabled) public onlyOwner {
        swapAndLiquifyEnabled = _enabled;
        emit SwapAndLiquifyEnabledUpdated(_enabled);
    }
    
     //to recieve ETH from uniswapV2Router when swaping
    receive() external payable {}

    function _reflectFee(uint256 rFee, uint256 tFee) private {
        _rTotal = _rTotal.sub(rFee);
        _tFeeTotal = _tFeeTotal.add(tFee);
    }

    function _getValues(uint256 tAmount) private view returns (uint256, uint256, uint256, uint256, uint256, uint256) {
        (uint256 tTransferAmount, uint256 tFee, uint256 tLiquidity) = _getTValues(tAmount);
        (uint256 rAmount, uint256 rTransferAmount, uint256 rFee) = _getRValues(tAmount, tFee, tLiquidity, _getRate());
        return (rAmount, rTransferAmount, rFee, tTransferAmount, tFee, tLiquidity);
    }

    function _getTValues(uint256 tAmount) private view returns (uint256, uint256, uint256) {
        uint256 tFee = calculateTaxFee(tAmount);
        uint256 tLiquidity = calculateLiquidityFee(tAmount);
        uint256 tTransferAmount = tAmount.sub(tFee).sub(tLiquidity);
        return (tTransferAmount, tFee, tLiquidity);
    }

    function _getRValues(uint256 tAmount, uint256 tFee, uint256 tLiquidity, uint256 currentRate) private pure returns (uint256, uint256, uint256) {
        uint256 rAmount = tAmount.mul(currentRate);
        uint256 rFee = tFee.mul(currentRate);
        uint256 rLiquidity = tLiquidity.mul(currentRate);
        uint256 rTransferAmount = rAmount.sub(rFee).sub(rLiquidity);
        return (rAmount, rTransferAmount, rFee);
    }

    function _getRate() private view returns(uint256) {
        (uint256 rSupply, uint256 tSupply) = _getCurrentSupply();
        return rSupply.div(tSupply);
    }

    function _getCurrentSupply() private view returns(uint256, uint256) {
        uint256 rSupply = _rTotal;
        uint256 tSupply = _tTotal;      
        for (uint256 i = 0; i < _excluded.length; i++) {
            if (_rOwned[_excluded[i]] > rSupply || _tOwned[_excluded[i]] > tSupply) return (_rTotal, _tTotal);
            rSupply = rSupply.sub(_rOwned[_excluded[i]]);
            tSupply = tSupply.sub(_tOwned[_excluded[i]]);
        }
        if (rSupply < _rTotal.div(_tTotal)) return (_rTotal, _tTotal);
        return (rSupply, tSupply);
    }
    
    function _takeLiquidity(uint256 tLiquidity) private {
        uint256 currentRate =  _getRate();
        uint256 rLiquidity = tLiquidity.mul(currentRate);
        _rOwned[address(this)] = _rOwned[address(this)].add(rLiquidity);
        if(_isExcluded[address(this)])
            _tOwned[address(this)] = _tOwned[address(this)].add(tLiquidity);
    }
    
    function calculateTaxFee(uint256 _amount) private view returns (uint256) {
        return _amount.mul(_taxFee).div(
            10**2
        );
    }

    function calculateLiquidityFee(uint256 _amount) private view returns (uint256) {
        return _amount.mul(_liquidityFee).div(
            10**2
        );
    }
    
    function removeAllFee() private {
        if(_taxFee == 0 && _liquidityFee == 0) return;
        
        _previousTaxFee = _taxFee;
        _previousLiquidityFee = _liquidityFee;
        
        _taxFee = 0;
        _liquidityFee = 0;
    }
    
    function restoreAllFee() private {
        _taxFee = _previousTaxFee;
        _liquidityFee = _previousLiquidityFee;
    }
    
    function isExcludedFromFee(address account) public view returns(bool) {
        return _isExcludedFromFee[account];
    }

    function _approve(address owner, address spender, uint256 amount) private {
        require(owner != address(0), "ERC20: approve from the zero address");
        require(spender != address(0), "ERC20: approve to the zero address");

        _allowances[owner][spender] = amount;
        emit Approval(owner, spender, amount);
    }

    function _transfer(
        address from,
        address to,
        uint256 amount
    ) private {
        require(from != address(0), "ERC20: transfer from the zero address");
        require(to != address(0), "ERC20: transfer to the zero address");
        require(amount > 0, "Transfer amount must be greater than zero");
        if(from != owner() && to != owner())
            require(amount <= _maxTxAmount, "Transfer amount exceeds the maxTxAmount.");

        // is the token balance of this contract address over the min number of
        // tokens that we need to initiate a swap + liquidity lock?
        // also, don't get caught in a circular liquidity event.
        // also, don't swap & liquify if sender is uniswap pair.
        uint256 contractTokenBalance = balanceOf(address(this));
        
        if(contractTokenBalance >= _maxTxAmount)
        {
            contractTokenBalance = _maxTxAmount;
        }
        
        bool overMinTokenBalance = contractTokenBalance >= numTokensSellToAddToLiquidity;
        if (
            overMinTokenBalance &&
            !inSwapAndLiquify &&
            from != uniswapV2Pair &&
            swapAndLiquifyEnabled
        ) {
            contractTokenBalance = numTokensSellToAddToLiquidity;
            //add liquidity
            swapAndLiquify(contractTokenBalance);
        }
        
        //indicates if fee should be deducted from transfer
        bool takeFee = true;
        
        //if any account belongs to _isExcludedFromFee account then remove the fee
        if(_isExcludedFromFee[from] || _isExcludedFromFee[to]){
            takeFee = false;
        }
        
        //transfer amount, it will take tax, burn, liquidity fee
        _tokenTransfer(from,to,amount,takeFee);
    }

    function swapAndLiquify(uint256 contractTokenBalance) private lockTheSwap {
        // split the contract balance into halves
        uint256 half = contractTokenBalance.div(2);
        uint256 otherHalf = contractTokenBalance.sub(half);

        // capture the contract's current ETH balance.
        // this is so that we can capture exactly the amount of ETH that the
        // swap creates, and not make the liquidity event include any ETH that
        // has been manually sent to the contract
        uint256 initialBalance = address(this).balance;

        // swap tokens for ETH
        swapTokensForEth(half); // <- this breaks the ETH -> HATE swap when swap+liquify is triggered

        // how much ETH did we just swap into?
        uint256 newBalance = address(this).balance.sub(initialBalance);

        // add liquidity to uniswap
        addLiquidity(otherHalf, newBalance);
        
        emit SwapAndLiquify(half, newBalance, otherHalf);
    }

    function swapTokensForEth(uint256 tokenAmount) private {
        // generate the uniswap pair path of token -> weth
        address[] memory path = new address[](2);
        path[0] = address(this);
        path[1] = uniswapV2Router.WETH();

        _approve(address(this), address(uniswapV2Router), tokenAmount);

        // make the swap
        uniswapV2Router.swapExactTokensForETHSupportingFeeOnTransferTokens(
            tokenAmount,
            0, // accept any amount of ETH
            path,
            address(this),
            block.timestamp
        );
    }

    function addLiquidity(uint256 tokenAmount, uint256 ethAmount) private {
        // approve token transfer to cover all possible scenarios
        _approve(address(this), address(uniswapV2Router), tokenAmount);

        // add the liquidity
        uniswapV2Router.addLiquidityETH{value: ethAmount}(
            address(this),
            tokenAmount,
            0, // slippage is unavoidable
            0, // slippage is unavoidable
            owner(),
            block.timestamp
        );
    }

    //this method is responsible for taking all fee, if takeFee is true
    function _tokenTransfer(address sender, address recipient, uint256 amount,bool takeFee) private {
        if(!takeFee)
            removeAllFee();
        
        if (_isExcluded[sender] && !_isExcluded[recipient]) {
            _transferFromExcluded(sender, recipient, amount);
        } else if (!_isExcluded[sender] && _isExcluded[recipient]) {
            _transferToExcluded(sender, recipient, amount);
        } else if (!_isExcluded[sender] && !_isExcluded[recipient]) {
            _transferStandard(sender, recipient, amount);
        } else if (_isExcluded[sender] && _isExcluded[recipient]) {
            _transferBothExcluded(sender, recipient, amount);
        } else {
            _transferStandard(sender, recipient, amount);
        }
        
        if(!takeFee)
            restoreAllFee();
    }

    function _transferStandard(address sender, address recipient, uint256 tAmount) private {
        (uint256 rAmount, uint256 rTransferAmount, uint256 rFee, uint256 tTransferAmount, uint256 tFee, uint256 tLiquidity) = _getValues(tAmount);
        _rOwned[sender] = _rOwned[sender].sub(rAmount);
        _rOwned[recipient] = _rOwned[recipient].add(rTransferAmount);
        _takeLiquidity(tLiquidity);
        _reflectFee(rFee, tFee);
        emit Transfer(sender, recipient, tTransferAmount);
    }

    function _transferToExcluded(address sender, address recipient, uint256 tAmount) private {
        (uint256 rAmount, uint256 rTransferAmount, uint256 rFee, uint256 tTransferAmount, uint256 tFee, uint256 tLiquidity) = _getValues(tAmount);
        _rOwned[sender] = _rOwned[sender].sub(rAmount);
        _tOwned[recipient] = _tOwned[recipient].add(tTransferAmount);
        _rOwned[recipient] = _rOwned[recipient].add(rTransferAmount);           
        _takeLiquidity(tLiquidity);
        _reflectFee(rFee, tFee);
        emit Transfer(sender, recipient, tTransferAmount);
    }

    function _transferFromExcluded(address sender, address recipient, uint256 tAmount) private {
        (uint256 rAmount, uint256 rTransferAmount, uint256 rFee, uint256 tTransferAmount, uint256 tFee, uint256 tLiquidity) = _getValues(tAmount);
        _tOwned[sender] = _tOwned[sender].sub(tAmount);
        _rOwned[sender] = _rOwned[sender].sub(rAmount);
        _rOwned[recipient] = _rOwned[recipient].add(rTransferAmount);   
        _takeLiquidity(tLiquidity);
        _reflectFee(rFee, tFee);
        emit Transfer(sender, recipient, tTransferAmount);
    }


    

}

Contract Security Audit

Contract ABI

[{"inputs":[],"stateMutability":"nonpayable","type":"constructor"},{"anonymous":false,"inputs":[{"indexed":true,"internalType":"address","name":"owner","type":"address"},{"indexed":true,"internalType":"address","name":"spender","type":"address"},{"indexed":false,"internalType":"uint256","name":"value","type":"uint256"}],"name":"Approval","type":"event"},{"anonymous":false,"inputs":[{"indexed":false,"internalType":"uint256","name":"minTokensBeforeSwap","type":"uint256"}],"name":"MinTokensBeforeSwapUpdated","type":"event"},{"anonymous":false,"inputs":[{"indexed":true,"internalType":"address","name":"previousOwner","type":"address"},{"indexed":true,"internalType":"address","name":"newOwner","type":"address"}],"name":"OwnershipTransferred","type":"event"},{"anonymous":false,"inputs":[{"indexed":false,"internalType":"uint256","name":"tokensSwapped","type":"uint256"},{"indexed":false,"internalType":"uint256","name":"ethReceived","type":"uint256"},{"indexed":false,"internalType":"uint256","name":"tokensIntoLiqudity","type":"uint256"}],"name":"SwapAndLiquify","type":"event"},{"anonymous":false,"inputs":[{"indexed":false,"internalType":"bool","name":"enabled","type":"bool"}],"name":"SwapAndLiquifyEnabledUpdated","type":"event"},{"anonymous":false,"inputs":[{"indexed":true,"internalType":"address","name":"from","type":"address"},{"indexed":true,"internalType":"address","name":"to","type":"address"},{"indexed":false,"internalType":"uint256","name":"value","type":"uint256"}],"name":"Transfer","type":"event"},{"inputs":[],"name":"_liquidityFee","outputs":[{"internalType":"uint256","name":"","type":"uint256"}],"stateMutability":"view","type":"function"},{"inputs":[],"name":"_maxTxAmount","outputs":[{"internalType":"uint256","name":"","type":"uint256"}],"stateMutability":"view","type":"function"},{"inputs":[],"name":"_taxFee","outputs":[{"internalType":"uint256","name":"","type":"uint256"}],"stateMutability":"view","type":"function"},{"inputs":[{"internalType":"address","name":"owner","type":"address"},{"internalType":"address","name":"spender","type":"address"}],"name":"allowance","outputs":[{"internalType":"uint256","name":"","type":"uint256"}],"stateMutability":"view","type":"function"},{"inputs":[{"internalType":"address","name":"spender","type":"address"},{"internalType":"uint256","name":"amount","type":"uint256"}],"name":"approve","outputs":[{"internalType":"bool","name":"","type":"bool"}],"stateMutability":"nonpayable","type":"function"},{"inputs":[{"internalType":"address","name":"account","type":"address"}],"name":"balanceOf","outputs":[{"internalType":"uint256","name":"","type":"uint256"}],"stateMutability":"view","type":"function"},{"inputs":[],"name":"decimals","outputs":[{"internalType":"uint8","name":"","type":"uint8"}],"stateMutability":"view","type":"function"},{"inputs":[{"internalType":"address","name":"spender","type":"address"},{"internalType":"uint256","name":"subtractedValue","type":"uint256"}],"name":"decreaseAllowance","outputs":[{"internalType":"bool","name":"","type":"bool"}],"stateMutability":"nonpayable","type":"function"},{"inputs":[{"internalType":"uint256","name":"tAmount","type":"uint256"}],"name":"deliver","outputs":[],"stateMutability":"nonpayable","type":"function"},{"inputs":[{"internalType":"address","name":"account","type":"address"}],"name":"excludeFromFee","outputs":[],"stateMutability":"nonpayable","type":"function"},{"inputs":[{"internalType":"address","name":"account","type":"address"}],"name":"excludeFromReward","outputs":[],"stateMutability":"nonpayable","type":"function"},{"inputs":[],"name":"geUnlockTime","outputs":[{"internalType":"uint256","name":"","type":"uint256"}],"stateMutability":"view","type":"function"},{"inputs":[{"internalType":"address","name":"account","type":"address"}],"name":"includeInFee","outputs":[],"stateMutability":"nonpayable","type":"function"},{"inputs":[{"internalType":"address","name":"account","type":"address"}],"name":"includeInReward","outputs":[],"stateMutability":"nonpayable","type":"function"},{"inputs":[{"internalType":"address","name":"spender","type":"address"},{"internalType":"uint256","name":"addedValue","type":"uint256"}],"name":"increaseAllowance","outputs":[{"internalType":"bool","name":"","type":"bool"}],"stateMutability":"nonpayable","type":"function"},{"inputs":[{"internalType":"address","name":"account","type":"address"}],"name":"isExcludedFromFee","outputs":[{"internalType":"bool","name":"","type":"bool"}],"stateMutability":"view","type":"function"},{"inputs":[{"internalType":"address","name":"account","type":"address"}],"name":"isExcludedFromReward","outputs":[{"internalType":"bool","name":"","type":"bool"}],"stateMutability":"view","type":"function"},{"inputs":[{"internalType":"uint256","name":"time","type":"uint256"}],"name":"lock","outputs":[],"stateMutability":"nonpayable","type":"function"},{"inputs":[],"name":"name","outputs":[{"internalType":"string","name":"","type":"string"}],"stateMutability":"view","type":"function"},{"inputs":[],"name":"owner","outputs":[{"internalType":"address","name":"","type":"address"}],"stateMutability":"view","type":"function"},{"inputs":[{"internalType":"uint256","name":"tAmount","type":"uint256"},{"internalType":"bool","name":"deductTransferFee","type":"bool"}],"name":"reflectionFromToken","outputs":[{"internalType":"uint256","name":"","type":"uint256"}],"stateMutability":"view","type":"function"},{"inputs":[],"name":"renounceOwnership","outputs":[],"stateMutability":"nonpayable","type":"function"},{"inputs":[{"internalType":"uint256","name":"liquidityFee","type":"uint256"}],"name":"setLiquidityFeePercent","outputs":[],"stateMutability":"nonpayable","type":"function"},{"inputs":[{"internalType":"uint256","name":"maxTxPercent","type":"uint256"}],"name":"setMaxTxPercent","outputs":[],"stateMutability":"nonpayable","type":"function"},{"inputs":[{"internalType":"bool","name":"_enabled","type":"bool"}],"name":"setSwapAndLiquifyEnabled","outputs":[],"stateMutability":"nonpayable","type":"function"},{"inputs":[{"internalType":"uint256","name":"taxFee","type":"uint256"}],"name":"setTaxFeePercent","outputs":[],"stateMutability":"nonpayable","type":"function"},{"inputs":[],"name":"swapAndLiquifyEnabled","outputs":[{"internalType":"bool","name":"","type":"bool"}],"stateMutability":"view","type":"function"},{"inputs":[],"name":"symbol","outputs":[{"internalType":"string","name":"","type":"string"}],"stateMutability":"view","type":"function"},{"inputs":[{"internalType":"uint256","name":"rAmount","type":"uint256"}],"name":"tokenFromReflection","outputs":[{"internalType":"uint256","name":"","type":"uint256"}],"stateMutability":"view","type":"function"},{"inputs":[],"name":"totalFees","outputs":[{"internalType":"uint256","name":"","type":"uint256"}],"stateMutability":"view","type":"function"},{"inputs":[],"name":"totalSupply","outputs":[{"internalType":"uint256","name":"","type":"uint256"}],"stateMutability":"view","type":"function"},{"inputs":[{"internalType":"address","name":"recipient","type":"address"},{"internalType":"uint256","name":"amount","type":"uint256"}],"name":"transfer","outputs":[{"internalType":"bool","name":"","type":"bool"}],"stateMutability":"nonpayable","type":"function"},{"inputs":[{"internalType":"address","name":"sender","type":"address"},{"internalType":"address","name":"recipient","type":"address"},{"internalType":"uint256","name":"amount","type":"uint256"}],"name":"transferFrom","outputs":[{"internalType":"bool","name":"","type":"bool"}],"stateMutability":"nonpayable","type":"function"},{"inputs":[{"internalType":"address","name":"newOwner","type":"address"}],"name":"transferOwnership","outputs":[],"stateMutability":"nonpayable","type":"function"},{"inputs":[],"name":"uniswapV2Pair","outputs":[{"internalType":"address","name":"","type":"address"}],"stateMutability":"view","type":"function"},{"inputs":[],"name":"uniswapV2Router","outputs":[{"internalType":"contract IUniswapV2Router02","name":"","type":"address"}],"stateMutability":"view","type":"function"},{"inputs":[],"name":"unlock","outputs":[],"stateMutability":"nonpayable","type":"function"},{"stateMutability":"payable","type":"receive"}]

60c060405269d3c21bcecceda1000000600955600954600019816200002057fe5b0660001903600a556040518060400160405280600881526020017f5269736b4d6f6f6e000000000000000000000000000000000000000000000000815250600c908051906020019062000075929190620005fe565b506040518060400160405280600881526020017f5249534b4d4f4f4e000000000000000000000000000000000000000000000000815250600d9080519060200190620000c3929190620005fe565b506009600e60006101000a81548160ff021916908360ff1602179055506005600f55600f5460105560056011556011546012556001601360016101000a81548160ff02191690831515021790555069010f0cf064dd59200000601455681b1ae4d6e2ef5000006015553480156200013957600080fd5b5060006200014c620005cd60201b60201c565b9050806000806101000a81548173ffffffffffffffffffffffffffffffffffffffff021916908373ffffffffffffffffffffffffffffffffffffffff1602179055508073ffffffffffffffffffffffffffffffffffffffff16600073ffffffffffffffffffffffffffffffffffffffff167f8be0079c531659141344cd1fd0a4f28419497f9722a3daafe3b4186f6b6457e060405160405180910390a350600a546003600062000201620005cd60201b60201c565b73ffffffffffffffffffffffffffffffffffffffff1673ffffffffffffffffffffffffffffffffffffffff1681526020019081526020016000208190555060007305ff2b0db69458a0750badebc4f9e13add608c7f90508073ffffffffffffffffffffffffffffffffffffffff1663c45a01556040518163ffffffff1660e01b815260040160206040518083038186803b1580156200029f57600080fd5b505afa158015620002b4573d6000803e3d6000fd5b505050506040513d6020811015620002cb57600080fd5b810190808051906020019092919050505073ffffffffffffffffffffffffffffffffffffffff1663c9c65396308373ffffffffffffffffffffffffffffffffffffffff1663ad5c46486040518163ffffffff1660e01b815260040160206040518083038186803b1580156200033f57600080fd5b505afa15801562000354573d6000803e3d6000fd5b505050506040513d60208110156200036b57600080fd5b81019080805190602001909291905050506040518363ffffffff1660e01b8152600401808373ffffffffffffffffffffffffffffffffffffffff1681526020018273ffffffffffffffffffffffffffffffffffffffff16815260200192505050602060405180830381600087803b158015620003e657600080fd5b505af1158015620003fb573d6000803e3d6000fd5b505050506040513d60208110156200041257600080fd5b810190808051906020019092919050505073ffffffffffffffffffffffffffffffffffffffff1660a08173ffffffffffffffffffffffffffffffffffffffff1660601b815250508073ffffffffffffffffffffffffffffffffffffffff1660808173ffffffffffffffffffffffffffffffffffffffff1660601b81525050600160066000620004a6620005d560201b60201c565b73ffffffffffffffffffffffffffffffffffffffff1673ffffffffffffffffffffffffffffffffffffffff16815260200190815260200160002060006101000a81548160ff0219169083151502179055506001600660003073ffffffffffffffffffffffffffffffffffffffff1673ffffffffffffffffffffffffffffffffffffffff16815260200190815260200160002060006101000a81548160ff0219169083151502179055506200055f620005cd60201b60201c565b73ffffffffffffffffffffffffffffffffffffffff16600073ffffffffffffffffffffffffffffffffffffffff167fddf252ad1be2c89b69c2b068fc378daa952ba7f163c4a11628f55a4df523b3ef6009546040518082815260200191505060405180910390a350620006a4565b600033905090565b60008060009054906101000a900473ffffffffffffffffffffffffffffffffffffffff16905090565b828054600181600116156101000203166002900490600052602060002090601f016020900481019282601f106200064157805160ff191683800117855562000672565b8280016001018555821562000672579182015b828111156200067157825182559160200191906001019062000654565b5b50905062000681919062000685565b5090565b5b80821115620006a057600081600090555060010162000686565b5090565b60805160601c60a05160601c614e2d620006ec600039806118365280612f9e525080610ee65280613c8a5280613d765280613d9d5280613ea85280613ecf5250614e2d6000f3fe60806040526004361061021e5760003560e01c80635342acb411610123578063a457c2d7116100ab578063d543dbeb1161006f578063d543dbeb14610bab578063dd46706414610be6578063dd62ed3e14610c21578063ea2f0b3714610ca6578063f2fde38b14610cf757610225565b8063a457c2d714610a4a578063a69df4b514610abb578063a9059cbb14610ad2578063b6c5232414610b43578063c49b9a8014610b6e57610225565b80637d1db4a5116100f25780637d1db4a5146108ac57806388f82020146108d75780638da5cb5b1461093e5780638ee88c531461097f57806395d89b41146109ba57610225565b80635342acb41461079e5780636bc87c3a1461080557806370a0823114610830578063715018a61461089557610225565b80633685d419116101a6578063437823ec11610175578063437823ec146106335780634549b0391461068457806349bd5a5e146106df5780634a74bb021461072057806352390c021461074d57610225565b80633685d4191461050b578063395093511461055c5780633b124fe7146105cd5780633bd5d173146105f857610225565b80631694505e116101ed5780631694505e1461039157806318160ddd146103d257806323b872dd146103fd5780632d8381191461048e578063313ce567146104dd57610225565b8063061c82d01461022a57806306fdde0314610265578063095ea7b3146102f557806313114a9d1461036657610225565b3661022557005b600080fd5b34801561023657600080fd5b506102636004803603602081101561024d57600080fd5b8101908080359060200190929190505050610d48565b005b34801561027157600080fd5b5061027a610e1a565b6040518080602001828103825283818151815260200191508051906020019080838360005b838110156102ba57808201518184015260208101905061029f565b50505050905090810190601f1680156102e75780820380516001836020036101000a031916815260200191505b509250505060405180910390f35b34801561030157600080fd5b5061034e6004803603604081101561031857600080fd5b81019080803573ffffffffffffffffffffffffffffffffffffffff16906020019092919080359060200190929190505050610ebc565b60405180821515815260200191505060405180910390f35b34801561037257600080fd5b5061037b610eda565b6040518082815260200191505060405180910390f35b34801561039d57600080fd5b506103a6610ee4565b604051808273ffffffffffffffffffffffffffffffffffffffff16815260200191505060405180910390f35b3480156103de57600080fd5b506103e7610f08565b6040518082815260200191505060405180910390f35b34801561040957600080fd5b506104766004803603606081101561042057600080fd5b81019080803573ffffffffffffffffffffffffffffffffffffffff169060200190929190803573ffffffffffffffffffffffffffffffffffffffff16906020019092919080359060200190929190505050610f12565b60405180821515815260200191505060405180910390f35b34801561049a57600080fd5b506104c7600480360360208110156104b157600080fd5b8101908080359060200190929190505050610feb565b6040518082815260200191505060405180910390f35b3480156104e957600080fd5b506104f261106f565b604051808260ff16815260200191505060405180910390f35b34801561051757600080fd5b5061055a6004803603602081101561052e57600080fd5b81019080803573ffffffffffffffffffffffffffffffffffffffff169060200190929190505050611086565b005b34801561056857600080fd5b506105b56004803603604081101561057f57600080fd5b81019080803573ffffffffffffffffffffffffffffffffffffffff16906020019092919080359060200190929190505050611410565b60405180821515815260200191505060405180910390f35b3480156105d957600080fd5b506105e26114c3565b6040518082815260200191505060405180910390f35b34801561060457600080fd5b506106316004803603602081101561061b57600080fd5b81019080803590602001909291905050506114c9565b005b34801561063f57600080fd5b506106826004803603602081101561065657600080fd5b81019080803573ffffffffffffffffffffffffffffffffffffffff16906020019092919050505061165a565b005b34801561069057600080fd5b506106c9600480360360408110156106a757600080fd5b810190808035906020019092919080351515906020019092919050505061177d565b6040518082815260200191505060405180910390f35b3480156106eb57600080fd5b506106f4611834565b604051808273ffffffffffffffffffffffffffffffffffffffff16815260200191505060405180910390f35b34801561072c57600080fd5b50610735611858565b60405180821515815260200191505060405180910390f35b34801561075957600080fd5b5061079c6004803603602081101561077057600080fd5b81019080803573ffffffffffffffffffffffffffffffffffffffff16906020019092919050505061186b565b005b3480156107aa57600080fd5b506107ed600480360360208110156107c157600080fd5b81019080803573ffffffffffffffffffffffffffffffffffffffff169060200190929190505050611b85565b60405180821515815260200191505060405180910390f35b34801561081157600080fd5b5061081a611bdb565b6040518082815260200191505060405180910390f35b34801561083c57600080fd5b5061087f6004803603602081101561085357600080fd5b81019080803573ffffffffffffffffffffffffffffffffffffffff169060200190929190505050611be1565b6040518082815260200191505060405180910390f35b3480156108a157600080fd5b506108aa611ccc565b005b3480156108b857600080fd5b506108c1611e52565b6040518082815260200191505060405180910390f35b3480156108e357600080fd5b50610926600480360360208110156108fa57600080fd5b81019080803573ffffffffffffffffffffffffffffffffffffffff169060200190929190505050611e58565b60405180821515815260200191505060405180910390f35b34801561094a57600080fd5b50610953611eae565b604051808273ffffffffffffffffffffffffffffffffffffffff16815260200191505060405180910390f35b34801561098b57600080fd5b506109b8600480360360208110156109a257600080fd5b8101908080359060200190929190505050611ed7565b005b3480156109c657600080fd5b506109cf611fa9565b6040518080602001828103825283818151815260200191508051906020019080838360005b83811015610a0f5780820151818401526020810190506109f4565b50505050905090810190601f168015610a3c5780820380516001836020036101000a031916815260200191505b509250505060405180910390f35b348015610a5657600080fd5b50610aa360048036036040811015610a6d57600080fd5b81019080803573ffffffffffffffffffffffffffffffffffffffff1690602001909291908035906020019092919050505061204b565b60405180821515815260200191505060405180910390f35b348015610ac757600080fd5b50610ad0612118565b005b348015610ade57600080fd5b50610b2b60048036036040811015610af557600080fd5b81019080803573ffffffffffffffffffffffffffffffffffffffff16906020019092919080359060200190929190505050612335565b60405180821515815260200191505060405180910390f35b348015610b4f57600080fd5b50610b58612353565b6040518082815260200191505060405180910390f35b348015610b7a57600080fd5b50610ba960048036036020811015610b9157600080fd5b8101908080351515906020019092919050505061235d565b005b348015610bb757600080fd5b50610be460048036036020811015610bce57600080fd5b810190808035906020019092919050505061247b565b005b348015610bf257600080fd5b50610c1f60048036036020811015610c0957600080fd5b8101908080359060200190929190505050612574565b005b348015610c2d57600080fd5b50610c9060048036036040811015610c4457600080fd5b81019080803573ffffffffffffffffffffffffffffffffffffffff169060200190929190803573ffffffffffffffffffffffffffffffffffffffff169060200190929190505050612765565b6040518082815260200191505060405180910390f35b348015610cb257600080fd5b50610cf560048036036020811015610cc957600080fd5b81019080803573ffffffffffffffffffffffffffffffffffffffff1690602001909291905050506127ec565b005b348015610d0357600080fd5b50610d4660048036036020811015610d1a57600080fd5b81019080803573ffffffffffffffffffffffffffffffffffffffff16906020019092919050505061290f565b005b610d50612b1a565b73ffffffffffffffffffffffffffffffffffffffff1660008054906101000a900473ffffffffffffffffffffffffffffffffffffffff1673ffffffffffffffffffffffffffffffffffffffff1614610e10576040517f08c379a00000000000000000000000000000000000000000000000000000000081526004018080602001828103825260208152602001807f4f776e61626c653a2063616c6c6572206973206e6f7420746865206f776e657281525060200191505060405180910390fd5b80600f8190555050565b6060600c8054600181600116156101000203166002900480601f016020809104026020016040519081016040528092919081815260200182805460018160011615610100020316600290048015610eb25780601f10610e8757610100808354040283529160200191610eb2565b820191906000526020600020905b815481529060010190602001808311610e9557829003601f168201915b5050505050905090565b6000610ed0610ec9612b1a565b8484612b22565b6001905092915050565b6000600b54905090565b7f000000000000000000000000000000000000000000000000000000000000000081565b6000600954905090565b6000610f1f848484612d19565b610fe084610f2b612b1a565b610fdb85604051806060016040528060288152602001614cea60289139600560008b73ffffffffffffffffffffffffffffffffffffffff1673ffffffffffffffffffffffffffffffffffffffff1681526020019081526020016000206000610f91612b1a565b73ffffffffffffffffffffffffffffffffffffffff1673ffffffffffffffffffffffffffffffffffffffff168152602001908152602001600020546130de9092919063ffffffff16565b612b22565b600190509392505050565b6000600a54821115611048576040517f08c379a000000000000000000000000000000000000000000000000000000000815260040180806020018281038252602a815260200180614c2f602a913960400191505060405180910390fd5b600061105261319e565b905061106781846131c990919063ffffffff16565b915050919050565b6000600e60009054906101000a900460ff16905090565b61108e612b1a565b73ffffffffffffffffffffffffffffffffffffffff1660008054906101000a900473ffffffffffffffffffffffffffffffffffffffff1673ffffffffffffffffffffffffffffffffffffffff161461114e576040517f08c379a00000000000000000000000000000000000000000000000000000000081526004018080602001828103825260208152602001807f4f776e61626c653a2063616c6c6572206973206e6f7420746865206f776e657281525060200191505060405180910390fd5b600760008273ffffffffffffffffffffffffffffffffffffffff1673ffffffffffffffffffffffffffffffffffffffff16815260200190815260200160002060009054906101000a900460ff1661120d576040517f08c379a000000000000000000000000000000000000000000000000000000000815260040180806020018281038252601b8152602001807f4163636f756e7420697320616c7265616479206578636c75646564000000000081525060200191505060405180910390fd5b60005b60088054905081101561140c578173ffffffffffffffffffffffffffffffffffffffff166008828154811061124157fe5b9060005260206000200160009054906101000a900473ffffffffffffffffffffffffffffffffffffffff1673ffffffffffffffffffffffffffffffffffffffff1614156113ff5760086001600880549050038154811061129d57fe5b9060005260206000200160009054906101000a900473ffffffffffffffffffffffffffffffffffffffff16600882815481106112d557fe5b9060005260206000200160006101000a81548173ffffffffffffffffffffffffffffffffffffffff021916908373ffffffffffffffffffffffffffffffffffffffff1602179055506000600460008473ffffffffffffffffffffffffffffffffffffffff1673ffffffffffffffffffffffffffffffffffffffff168152602001908152602001600020819055506000600760008473ffffffffffffffffffffffffffffffffffffffff1673ffffffffffffffffffffffffffffffffffffffff16815260200190815260200160002060006101000a81548160ff02191690831515021790555060088054806113c557fe5b6001900381819060005260206000200160006101000a81549073ffffffffffffffffffffffffffffffffffffffff0219169055905561140c565b8080600101915050611210565b5050565b60006114b961141d612b1a565b846114b4856005600061142e612b1a565b73ffffffffffffffffffffffffffffffffffffffff1673ffffffffffffffffffffffffffffffffffffffff16815260200190815260200160002060008973ffffffffffffffffffffffffffffffffffffffff1673ffffffffffffffffffffffffffffffffffffffff1681526020019081526020016000205461321390919063ffffffff16565b612b22565b6001905092915050565b600f5481565b60006114d3612b1a565b9050600760008273ffffffffffffffffffffffffffffffffffffffff1673ffffffffffffffffffffffffffffffffffffffff16815260200190815260200160002060009054906101000a900460ff1615611578576040517f08c379a000000000000000000000000000000000000000000000000000000000815260040180806020018281038252602c815260200180614d84602c913960400191505060405180910390fd5b60006115838361329b565b505050505090506115dc81600360008573ffffffffffffffffffffffffffffffffffffffff1673ffffffffffffffffffffffffffffffffffffffff168152602001908152602001600020546132f790919063ffffffff16565b600360008473ffffffffffffffffffffffffffffffffffffffff1673ffffffffffffffffffffffffffffffffffffffff1681526020019081526020016000208190555061163481600a546132f790919063ffffffff16565b600a8190555061164f83600b5461321390919063ffffffff16565b600b81905550505050565b611662612b1a565b73ffffffffffffffffffffffffffffffffffffffff1660008054906101000a900473ffffffffffffffffffffffffffffffffffffffff1673ffffffffffffffffffffffffffffffffffffffff1614611722576040517f08c379a00000000000000000000000000000000000000000000000000000000081526004018080602001828103825260208152602001807f4f776e61626c653a2063616c6c6572206973206e6f7420746865206f776e657281525060200191505060405180910390fd5b6001600660008373ffffffffffffffffffffffffffffffffffffffff1673ffffffffffffffffffffffffffffffffffffffff16815260200190815260200160002060006101000a81548160ff02191690831515021790555050565b60006009548311156117f7576040517f08c379a000000000000000000000000000000000000000000000000000000000815260040180806020018281038252601f8152602001807f416d6f756e74206d757374206265206c657373207468616e20737570706c790081525060200191505060405180910390fd5b816118175760006118078461329b565b505050505090508091505061182e565b60006118228461329b565b50505050915050809150505b92915050565b7f000000000000000000000000000000000000000000000000000000000000000081565b601360019054906101000a900460ff1681565b611873612b1a565b73ffffffffffffffffffffffffffffffffffffffff1660008054906101000a900473ffffffffffffffffffffffffffffffffffffffff1673ffffffffffffffffffffffffffffffffffffffff1614611933576040517f08c379a00000000000000000000000000000000000000000000000000000000081526004018080602001828103825260208152602001807f4f776e61626c653a2063616c6c6572206973206e6f7420746865206f776e657281525060200191505060405180910390fd5b600760008273ffffffffffffffffffffffffffffffffffffffff1673ffffffffffffffffffffffffffffffffffffffff16815260200190815260200160002060009054906101000a900460ff16156119f3576040517f08c379a000000000000000000000000000000000000000000000000000000000815260040180806020018281038252601b8152602001807f4163636f756e7420697320616c7265616479206578636c75646564000000000081525060200191505060405180910390fd5b6000600360008373ffffffffffffffffffffffffffffffffffffffff1673ffffffffffffffffffffffffffffffffffffffff168152602001908152602001600020541115611ac757611a83600360008373ffffffffffffffffffffffffffffffffffffffff1673ffffffffffffffffffffffffffffffffffffffff16815260200190815260200160002054610feb565b600460008373ffffffffffffffffffffffffffffffffffffffff1673ffffffffffffffffffffffffffffffffffffffff168152602001908152602001600020819055505b6001600760008373ffffffffffffffffffffffffffffffffffffffff1673ffffffffffffffffffffffffffffffffffffffff16815260200190815260200160002060006101000a81548160ff0219169083151502179055506008819080600181540180825580915050600190039060005260206000200160009091909190916101000a81548173ffffffffffffffffffffffffffffffffffffffff021916908373ffffffffffffffffffffffffffffffffffffffff16021790555050565b6000600660008373ffffffffffffffffffffffffffffffffffffffff1673ffffffffffffffffffffffffffffffffffffffff16815260200190815260200160002060009054906101000a900460ff169050919050565b60115481565b6000600760008373ffffffffffffffffffffffffffffffffffffffff1673ffffffffffffffffffffffffffffffffffffffff16815260200190815260200160002060009054906101000a900460ff1615611c7c57600460008373ffffffffffffffffffffffffffffffffffffffff1673ffffffffffffffffffffffffffffffffffffffff168152602001908152602001600020549050611cc7565b611cc4600360008473ffffffffffffffffffffffffffffffffffffffff1673ffffffffffffffffffffffffffffffffffffffff16815260200190815260200160002054610feb565b90505b919050565b611cd4612b1a565b73ffffffffffffffffffffffffffffffffffffffff1660008054906101000a900473ffffffffffffffffffffffffffffffffffffffff1673ffffffffffffffffffffffffffffffffffffffff1614611d94576040517f08c379a00000000000000000000000000000000000000000000000000000000081526004018080602001828103825260208152602001807f4f776e61626c653a2063616c6c6572206973206e6f7420746865206f776e657281525060200191505060405180910390fd5b600073ffffffffffffffffffffffffffffffffffffffff1660008054906101000a900473ffffffffffffffffffffffffffffffffffffffff1673ffffffffffffffffffffffffffffffffffffffff167f8be0079c531659141344cd1fd0a4f28419497f9722a3daafe3b4186f6b6457e060405160405180910390a360008060006101000a81548173ffffffffffffffffffffffffffffffffffffffff021916908373ffffffffffffffffffffffffffffffffffffffff160217905550565b60145481565b6000600760008373ffffffffffffffffffffffffffffffffffffffff1673ffffffffffffffffffffffffffffffffffffffff16815260200190815260200160002060009054906101000a900460ff169050919050565b60008060009054906101000a900473ffffffffffffffffffffffffffffffffffffffff16905090565b611edf612b1a565b73ffffffffffffffffffffffffffffffffffffffff1660008054906101000a900473ffffffffffffffffffffffffffffffffffffffff1673ffffffffffffffffffffffffffffffffffffffff1614611f9f576040517f08c379a00000000000000000000000000000000000000000000000000000000081526004018080602001828103825260208152602001807f4f776e61626c653a2063616c6c6572206973206e6f7420746865206f776e657281525060200191505060405180910390fd5b8060118190555050565b6060600d8054600181600116156101000203166002900480601f0160208091040260200160405190810160405280929190818152602001828054600181600116156101000203166002900480156120415780601f1061201657610100808354040283529160200191612041565b820191906000526020600020905b81548152906001019060200180831161202457829003601f168201915b5050505050905090565b600061210e612058612b1a565b8461210985604051806060016040528060258152602001614dd36025913960056000612082612b1a565b73ffffffffffffffffffffffffffffffffffffffff1673ffffffffffffffffffffffffffffffffffffffff16815260200190815260200160002060008a73ffffffffffffffffffffffffffffffffffffffff1673ffffffffffffffffffffffffffffffffffffffff168152602001908152602001600020546130de9092919063ffffffff16565b612b22565b6001905092915050565b3373ffffffffffffffffffffffffffffffffffffffff16600160009054906101000a900473ffffffffffffffffffffffffffffffffffffffff1673ffffffffffffffffffffffffffffffffffffffff16146121be576040517f08c379a0000000000000000000000000000000000000000000000000000000008152600401808060200182810382526023815260200180614db06023913960400191505060405180910390fd5b6002544211612235576040517f08c379a000000000000000000000000000000000000000000000000000000000815260040180806020018281038252601f8152602001807f436f6e7472616374206973206c6f636b656420756e74696c203720646179730081525060200191505060405180910390fd5b600160009054906101000a900473ffffffffffffffffffffffffffffffffffffffff1673ffffffffffffffffffffffffffffffffffffffff1660008054906101000a900473ffffffffffffffffffffffffffffffffffffffff1673ffffffffffffffffffffffffffffffffffffffff167f8be0079c531659141344cd1fd0a4f28419497f9722a3daafe3b4186f6b6457e060405160405180910390a3600160009054906101000a900473ffffffffffffffffffffffffffffffffffffffff166000806101000a81548173ffffffffffffffffffffffffffffffffffffffff021916908373ffffffffffffffffffffffffffffffffffffffff160217905550565b6000612349612342612b1a565b8484612d19565b6001905092915050565b6000600254905090565b612365612b1a565b73ffffffffffffffffffffffffffffffffffffffff1660008054906101000a900473ffffffffffffffffffffffffffffffffffffffff1673ffffffffffffffffffffffffffffffffffffffff1614612425576040517f08c379a00000000000000000000000000000000000000000000000000000000081526004018080602001828103825260208152602001807f4f776e61626c653a2063616c6c6572206973206e6f7420746865206f776e657281525060200191505060405180910390fd5b80601360016101000a81548160ff0219169083151502179055507f53726dfcaf90650aa7eb35524f4d3220f07413c8d6cb404cc8c18bf5591bc1598160405180821515815260200191505060405180910390a150565b612483612b1a565b73ffffffffffffffffffffffffffffffffffffffff1660008054906101000a900473ffffffffffffffffffffffffffffffffffffffff1673ffffffffffffffffffffffffffffffffffffffff1614612543576040517f08c379a00000000000000000000000000000000000000000000000000000000081526004018080602001828103825260208152602001807f4f776e61626c653a2063616c6c6572206973206e6f7420746865206f776e657281525060200191505060405180910390fd5b61256b606461255d8360095461334190919063ffffffff16565b6131c990919063ffffffff16565b60148190555050565b61257c612b1a565b73ffffffffffffffffffffffffffffffffffffffff1660008054906101000a900473ffffffffffffffffffffffffffffffffffffffff1673ffffffffffffffffffffffffffffffffffffffff161461263c576040517f08c379a00000000000000000000000000000000000000000000000000000000081526004018080602001828103825260208152602001807f4f776e61626c653a2063616c6c6572206973206e6f7420746865206f776e657281525060200191505060405180910390fd5b60008054906101000a900473ffffffffffffffffffffffffffffffffffffffff16600160006101000a81548173ffffffffffffffffffffffffffffffffffffffff021916908373ffffffffffffffffffffffffffffffffffffffff16021790555060008060006101000a81548173ffffffffffffffffffffffffffffffffffffffff021916908373ffffffffffffffffffffffffffffffffffffffff160217905550804201600281905550600073ffffffffffffffffffffffffffffffffffffffff1660008054906101000a900473ffffffffffffffffffffffffffffffffffffffff1673ffffffffffffffffffffffffffffffffffffffff167f8be0079c531659141344cd1fd0a4f28419497f9722a3daafe3b4186f6b6457e060405160405180910390a350565b6000600560008473ffffffffffffffffffffffffffffffffffffffff1673ffffffffffffffffffffffffffffffffffffffff16815260200190815260200160002060008373ffffffffffffffffffffffffffffffffffffffff1673ffffffffffffffffffffffffffffffffffffffff16815260200190815260200160002054905092915050565b6127f4612b1a565b73ffffffffffffffffffffffffffffffffffffffff1660008054906101000a900473ffffffffffffffffffffffffffffffffffffffff1673ffffffffffffffffffffffffffffffffffffffff16146128b4576040517f08c379a00000000000000000000000000000000000000000000000000000000081526004018080602001828103825260208152602001807f4f776e61626c653a2063616c6c6572206973206e6f7420746865206f776e657281525060200191505060405180910390fd5b6000600660008373ffffffffffffffffffffffffffffffffffffffff1673ffffffffffffffffffffffffffffffffffffffff16815260200190815260200160002060006101000a81548160ff02191690831515021790555050565b612917612b1a565b73ffffffffffffffffffffffffffffffffffffffff1660008054906101000a900473ffffffffffffffffffffffffffffffffffffffff1673ffffffffffffffffffffffffffffffffffffffff16146129d7576040517f08c379a00000000000000000000000000000000000000000000000000000000081526004018080602001828103825260208152602001807f4f776e61626c653a2063616c6c6572206973206e6f7420746865206f776e657281525060200191505060405180910390fd5b600073ffffffffffffffffffffffffffffffffffffffff168173ffffffffffffffffffffffffffffffffffffffff161415612a5d576040517f08c379a0000000000000000000000000000000000000000000000000000000008152600401808060200182810382526026815260200180614c596026913960400191505060405180910390fd5b8073ffffffffffffffffffffffffffffffffffffffff1660008054906101000a900473ffffffffffffffffffffffffffffffffffffffff1673ffffffffffffffffffffffffffffffffffffffff167f8be0079c531659141344cd1fd0a4f28419497f9722a3daafe3b4186f6b6457e060405160405180910390a3806000806101000a81548173ffffffffffffffffffffffffffffffffffffffff021916908373ffffffffffffffffffffffffffffffffffffffff16021790555050565b600033905090565b600073ffffffffffffffffffffffffffffffffffffffff168373ffffffffffffffffffffffffffffffffffffffff161415612ba8576040517f08c379a0000000000000000000000000000000000000000000000000000000008152600401808060200182810382526024815260200180614d606024913960400191505060405180910390fd5b600073ffffffffffffffffffffffffffffffffffffffff168273ffffffffffffffffffffffffffffffffffffffff161415612c2e576040517f08c379a0000000000000000000000000000000000000000000000000000000008152600401808060200182810382526022815260200180614c7f6022913960400191505060405180910390fd5b80600560008573ffffffffffffffffffffffffffffffffffffffff1673ffffffffffffffffffffffffffffffffffffffff16815260200190815260200160002060008473ffffffffffffffffffffffffffffffffffffffff1673ffffffffffffffffffffffffffffffffffffffff168152602001908152602001600020819055508173ffffffffffffffffffffffffffffffffffffffff168373ffffffffffffffffffffffffffffffffffffffff167f8c5be1e5ebec7d5bd14f71427d1e84f3dd0314c0f7b2291e5b200ac8c7c3b925836040518082815260200191505060405180910390a3505050565b600073ffffffffffffffffffffffffffffffffffffffff168373ffffffffffffffffffffffffffffffffffffffff161415612d9f576040517f08c379a0000000000000000000000000000000000000000000000000000000008152600401808060200182810382526025815260200180614d3b6025913960400191505060405180910390fd5b600073ffffffffffffffffffffffffffffffffffffffff168273ffffffffffffffffffffffffffffffffffffffff161415612e25576040517f08c379a0000000000000000000000000000000000000000000000000000000008152600401808060200182810382526023815260200180614c0c6023913960400191505060405180910390fd5b60008111612e7e576040517f08c379a0000000000000000000000000000000000000000000000000000000008152600401808060200182810382526029815260200180614d126029913960400191505060405180910390fd5b612e86611eae565b73ffffffffffffffffffffffffffffffffffffffff168373ffffffffffffffffffffffffffffffffffffffff1614158015612ef45750612ec4611eae565b73ffffffffffffffffffffffffffffffffffffffff168273ffffffffffffffffffffffffffffffffffffffff1614155b15612f5557601454811115612f54576040517f08c379a0000000000000000000000000000000000000000000000000000000008152600401808060200182810382526028815260200180614ca16028913960400191505060405180910390fd5b5b6000612f6030611be1565b90506014548110612f715760145490505b60006015548210159050808015612f955750601360009054906101000a900460ff16155b8015612fed57507f000000000000000000000000000000000000000000000000000000000000000073ffffffffffffffffffffffffffffffffffffffff168573ffffffffffffffffffffffffffffffffffffffff1614155b80156130055750601360019054906101000a900460ff165b15613019576015549150613018826133c7565b5b600060019050600660008773ffffffffffffffffffffffffffffffffffffffff1673ffffffffffffffffffffffffffffffffffffffff16815260200190815260200160002060009054906101000a900460ff16806130c05750600660008673ffffffffffffffffffffffffffffffffffffffff1673ffffffffffffffffffffffffffffffffffffffff16815260200190815260200160002060009054906101000a900460ff165b156130ca57600090505b6130d6868686846134a9565b505050505050565b600083831115829061318b576040517f08c379a00000000000000000000000000000000000000000000000000000000081526004018080602001828103825283818151815260200191508051906020019080838360005b83811015613150578082015181840152602081019050613135565b50505050905090810190601f16801561317d5780820380516001836020036101000a031916815260200191505b509250505060405180910390fd5b5060008385039050809150509392505050565b60008060006131ab6137ba565b915091506131c281836131c990919063ffffffff16565b9250505090565b600061320b83836040518060400160405280601a81526020017f536166654d6174683a206469766973696f6e206279207a65726f000000000000815250613a4b565b905092915050565b600080828401905083811015613291576040517f08c379a000000000000000000000000000000000000000000000000000000000815260040180806020018281038252601b8152602001807f536166654d6174683a206164646974696f6e206f766572666c6f77000000000081525060200191505060405180910390fd5b8091505092915050565b60008060008060008060008060006132b28a613b11565b92509250925060008060006132d08d86866132cb61319e565b613b6b565b9250925092508282828888889b509b509b509b509b509b5050505050505091939550919395565b600061333983836040518060400160405280601e81526020017f536166654d6174683a207375627472616374696f6e206f766572666c6f7700008152506130de565b905092915050565b60008083141561335457600090506133c1565b600082840290508284828161336557fe5b04146133bc576040517f08c379a0000000000000000000000000000000000000000000000000000000008152600401808060200182810382526021815260200180614cc96021913960400191505060405180910390fd5b809150505b92915050565b6001601360006101000a81548160ff02191690831515021790555060006133f86002836131c990919063ffffffff16565b9050600061340f82846132f790919063ffffffff16565b9050600047905061341f83613bf4565b600061343482476132f790919063ffffffff16565b90506134408382613ea2565b7f17bbfb9a6069321b6ded73bd96327c9e6b7212a5cd51ff219cd61370acafb56184828560405180848152602001838152602001828152602001935050505060405180910390a1505050506000601360006101000a81548160ff02191690831515021790555050565b806134b7576134b6613ff3565b5b600760008573ffffffffffffffffffffffffffffffffffffffff1673ffffffffffffffffffffffffffffffffffffffff16815260200190815260200160002060009054906101000a900460ff16801561355a5750600760008473ffffffffffffffffffffffffffffffffffffffff1673ffffffffffffffffffffffffffffffffffffffff16815260200190815260200160002060009054906101000a900460ff16155b1561356f5761356a848484614036565b6137a6565b600760008573ffffffffffffffffffffffffffffffffffffffff1673ffffffffffffffffffffffffffffffffffffffff16815260200190815260200160002060009054906101000a900460ff161580156136125750600760008473ffffffffffffffffffffffffffffffffffffffff1673ffffffffffffffffffffffffffffffffffffffff16815260200190815260200160002060009054906101000a900460ff165b1561362757613622848484614296565b6137a5565b600760008573ffffffffffffffffffffffffffffffffffffffff1673ffffffffffffffffffffffffffffffffffffffff16815260200190815260200160002060009054906101000a900460ff161580156136cb5750600760008473ffffffffffffffffffffffffffffffffffffffff1673ffffffffffffffffffffffffffffffffffffffff16815260200190815260200160002060009054906101000a900460ff16155b156136e0576136db8484846144f6565b6137a4565b600760008573ffffffffffffffffffffffffffffffffffffffff1673ffffffffffffffffffffffffffffffffffffffff16815260200190815260200160002060009054906101000a900460ff1680156137825750600760008473ffffffffffffffffffffffffffffffffffffffff1673ffffffffffffffffffffffffffffffffffffffff16815260200190815260200160002060009054906101000a900460ff165b15613797576137928484846146c1565b6137a3565b6137a28484846144f6565b5b5b5b5b806137b4576137b36149b6565b5b50505050565b6000806000600a5490506000600954905060005b600880549050811015613a0e578260036000600884815481106137ed57fe5b9060005260206000200160009054906101000a900473ffffffffffffffffffffffffffffffffffffffff1673ffffffffffffffffffffffffffffffffffffffff1673ffffffffffffffffffffffffffffffffffffffff1681526020019081526020016000205411806138d4575081600460006008848154811061386c57fe5b9060005260206000200160009054906101000a900473ffffffffffffffffffffffffffffffffffffffff1673ffffffffffffffffffffffffffffffffffffffff1673ffffffffffffffffffffffffffffffffffffffff16815260200190815260200160002054115b156138eb57600a5460095494509450505050613a47565b61397460036000600884815481106138ff57fe5b9060005260206000200160009054906101000a900473ffffffffffffffffffffffffffffffffffffffff1673ffffffffffffffffffffffffffffffffffffffff1673ffffffffffffffffffffffffffffffffffffffff16815260200190815260200160002054846132f790919063ffffffff16565b92506139ff600460006008848154811061398a57fe5b9060005260206000200160009054906101000a900473ffffffffffffffffffffffffffffffffffffffff1673ffffffffffffffffffffffffffffffffffffffff1673ffffffffffffffffffffffffffffffffffffffff16815260200190815260200160002054836132f790919063ffffffff16565b915080806001019150506137ce565b50613a26600954600a546131c990919063ffffffff16565b821015613a3e57600a54600954935093505050613a47565b81819350935050505b9091565b60008083118290613af7576040517f08c379a00000000000000000000000000000000000000000000000000000000081526004018080602001828103825283818151815260200191508051906020019080838360005b83811015613abc578082015181840152602081019050613aa1565b50505050905090810190601f168015613ae95780820380516001836020036101000a031916815260200191505b509250505060405180910390fd5b506000838581613b0357fe5b049050809150509392505050565b600080600080613b20856149ca565b90506000613b2d866149fb565b90506000613b5682613b48858a6132f790919063ffffffff16565b6132f790919063ffffffff16565b90508083839550955095505050509193909250565b600080600080613b84858961334190919063ffffffff16565b90506000613b9b868961334190919063ffffffff16565b90506000613bb2878961334190919063ffffffff16565b90506000613bdb82613bcd85876132f790919063ffffffff16565b6132f790919063ffffffff16565b9050838184965096509650505050509450945094915050565b6060600267ffffffffffffffff81118015613c0e57600080fd5b50604051908082528060200260200182016040528015613c3d5781602001602082028036833780820191505090505b5090503081600081518110613c4e57fe5b602002602001019073ffffffffffffffffffffffffffffffffffffffff16908173ffffffffffffffffffffffffffffffffffffffff16815250507f000000000000000000000000000000000000000000000000000000000000000073ffffffffffffffffffffffffffffffffffffffff1663ad5c46486040518163ffffffff1660e01b815260040160206040518083038186803b158015613cee57600080fd5b505afa158015613d02573d6000803e3d6000fd5b505050506040513d6020811015613d1857600080fd5b810190808051906020019092919050505081600181518110613d3657fe5b602002602001019073ffffffffffffffffffffffffffffffffffffffff16908173ffffffffffffffffffffffffffffffffffffffff1681525050613d9b307f000000000000000000000000000000000000000000000000000000000000000084612b22565b7f000000000000000000000000000000000000000000000000000000000000000073ffffffffffffffffffffffffffffffffffffffff1663791ac9478360008430426040518663ffffffff1660e01b815260040180868152602001858152602001806020018473ffffffffffffffffffffffffffffffffffffffff168152602001838152602001828103825285818151815260200191508051906020019060200280838360005b83811015613e5d578082015181840152602081019050613e42565b505050509050019650505050505050600060405180830381600087803b158015613e8657600080fd5b505af1158015613e9a573d6000803e3d6000fd5b505050505050565b613ecd307f000000000000000000000000000000000000000000000000000000000000000084612b22565b7f000000000000000000000000000000000000000000000000000000000000000073ffffffffffffffffffffffffffffffffffffffff1663f305d719823085600080613f17611eae565b426040518863ffffffff1660e01b8152600401808773ffffffffffffffffffffffffffffffffffffffff1681526020018681526020018581526020018481526020018373ffffffffffffffffffffffffffffffffffffffff16815260200182815260200196505050505050506060604051808303818588803b158015613f9c57600080fd5b505af1158015613fb0573d6000803e3d6000fd5b50505050506040513d6060811015613fc757600080fd5b810190808051906020019092919080519060200190929190805190602001909291905050505050505050565b6000600f5414801561400757506000601154145b1561401157614034565b600f546010819055506011546012819055506000600f8190555060006011819055505b565b6000806000806000806140488761329b565b9550955095509550955095506140a687600460008c73ffffffffffffffffffffffffffffffffffffffff1673ffffffffffffffffffffffffffffffffffffffff168152602001908152602001600020546132f790919063ffffffff16565b600460008b73ffffffffffffffffffffffffffffffffffffffff1673ffffffffffffffffffffffffffffffffffffffff1681526020019081526020016000208190555061413b86600360008c73ffffffffffffffffffffffffffffffffffffffff1673ffffffffffffffffffffffffffffffffffffffff168152602001908152602001600020546132f790919063ffffffff16565b600360008b73ffffffffffffffffffffffffffffffffffffffff1673ffffffffffffffffffffffffffffffffffffffff168152602001908152602001600020819055506141d085600360008b73ffffffffffffffffffffffffffffffffffffffff1673ffffffffffffffffffffffffffffffffffffffff1681526020019081526020016000205461321390919063ffffffff16565b600360008a73ffffffffffffffffffffffffffffffffffffffff1673ffffffffffffffffffffffffffffffffffffffff1681526020019081526020016000208190555061421c81614a2c565b6142268483614bd1565b8773ffffffffffffffffffffffffffffffffffffffff168973ffffffffffffffffffffffffffffffffffffffff167fddf252ad1be2c89b69c2b068fc378daa952ba7f163c4a11628f55a4df523b3ef856040518082815260200191505060405180910390a3505050505050505050565b6000806000806000806142a88761329b565b95509550955095509550955061430686600360008c73ffffffffffffffffffffffffffffffffffffffff1673ffffffffffffffffffffffffffffffffffffffff168152602001908152602001600020546132f790919063ffffffff16565b600360008b73ffffffffffffffffffffffffffffffffffffffff1673ffffffffffffffffffffffffffffffffffffffff1681526020019081526020016000208190555061439b83600460008b73ffffffffffffffffffffffffffffffffffffffff1673ffffffffffffffffffffffffffffffffffffffff1681526020019081526020016000205461321390919063ffffffff16565b600460008a73ffffffffffffffffffffffffffffffffffffffff1673ffffffffffffffffffffffffffffffffffffffff1681526020019081526020016000208190555061443085600360008b73ffffffffffffffffffffffffffffffffffffffff1673ffffffffffffffffffffffffffffffffffffffff1681526020019081526020016000205461321390919063ffffffff16565b600360008a73ffffffffffffffffffffffffffffffffffffffff1673ffffffffffffffffffffffffffffffffffffffff1681526020019081526020016000208190555061447c81614a2c565b6144868483614bd1565b8773ffffffffffffffffffffffffffffffffffffffff168973ffffffffffffffffffffffffffffffffffffffff167fddf252ad1be2c89b69c2b068fc378daa952ba7f163c4a11628f55a4df523b3ef856040518082815260200191505060405180910390a3505050505050505050565b6000806000806000806145088761329b565b95509550955095509550955061456686600360008c73ffffffffffffffffffffffffffffffffffffffff1673ffffffffffffffffffffffffffffffffffffffff168152602001908152602001600020546132f790919063ffffffff16565b600360008b73ffffffffffffffffffffffffffffffffffffffff1673ffffffffffffffffffffffffffffffffffffffff168152602001908152602001600020819055506145fb85600360008b73ffffffffffffffffffffffffffffffffffffffff1673ffffffffffffffffffffffffffffffffffffffff1681526020019081526020016000205461321390919063ffffffff16565b600360008a73ffffffffffffffffffffffffffffffffffffffff1673ffffffffffffffffffffffffffffffffffffffff1681526020019081526020016000208190555061464781614a2c565b6146518483614bd1565b8773ffffffffffffffffffffffffffffffffffffffff168973ffffffffffffffffffffffffffffffffffffffff167fddf252ad1be2c89b69c2b068fc378daa952ba7f163c4a11628f55a4df523b3ef856040518082815260200191505060405180910390a3505050505050505050565b6000806000806000806146d38761329b565b95509550955095509550955061473187600460008c73ffffffffffffffffffffffffffffffffffffffff1673ffffffffffffffffffffffffffffffffffffffff168152602001908152602001600020546132f790919063ffffffff16565b600460008b73ffffffffffffffffffffffffffffffffffffffff1673ffffffffffffffffffffffffffffffffffffffff168152602001908152602001600020819055506147c686600360008c73ffffffffffffffffffffffffffffffffffffffff1673ffffffffffffffffffffffffffffffffffffffff168152602001908152602001600020546132f790919063ffffffff16565b600360008b73ffffffffffffffffffffffffffffffffffffffff1673ffffffffffffffffffffffffffffffffffffffff1681526020019081526020016000208190555061485b83600460008b73ffffffffffffffffffffffffffffffffffffffff1673ffffffffffffffffffffffffffffffffffffffff1681526020019081526020016000205461321390919063ffffffff16565b600460008a73ffffffffffffffffffffffffffffffffffffffff1673ffffffffffffffffffffffffffffffffffffffff168152602001908152602001600020819055506148f085600360008b73ffffffffffffffffffffffffffffffffffffffff1673ffffffffffffffffffffffffffffffffffffffff1681526020019081526020016000205461321390919063ffffffff16565b600360008a73ffffffffffffffffffffffffffffffffffffffff1673ffffffffffffffffffffffffffffffffffffffff1681526020019081526020016000208190555061493c81614a2c565b6149468483614bd1565b8773ffffffffffffffffffffffffffffffffffffffff168973ffffffffffffffffffffffffffffffffffffffff167fddf252ad1be2c89b69c2b068fc378daa952ba7f163c4a11628f55a4df523b3ef856040518082815260200191505060405180910390a3505050505050505050565b601054600f81905550601254601181905550565b60006149f460646149e6600f548561334190919063ffffffff16565b6131c990919063ffffffff16565b9050919050565b6000614a256064614a176011548561334190919063ffffffff16565b6131c990919063ffffffff16565b9050919050565b6000614a3661319e565b90506000614a4d828461334190919063ffffffff16565b9050614aa181600360003073ffffffffffffffffffffffffffffffffffffffff1673ffffffffffffffffffffffffffffffffffffffff1681526020019081526020016000205461321390919063ffffffff16565b600360003073ffffffffffffffffffffffffffffffffffffffff1673ffffffffffffffffffffffffffffffffffffffff16815260200190815260200160002081905550600760003073ffffffffffffffffffffffffffffffffffffffff1673ffffffffffffffffffffffffffffffffffffffff16815260200190815260200160002060009054906101000a900460ff1615614bcc57614b8883600460003073ffffffffffffffffffffffffffffffffffffffff1673ffffffffffffffffffffffffffffffffffffffff1681526020019081526020016000205461321390919063ffffffff16565b600460003073ffffffffffffffffffffffffffffffffffffffff1673ffffffffffffffffffffffffffffffffffffffff168152602001908152602001600020819055505b505050565b614be682600a546132f790919063ffffffff16565b600a81905550614c0181600b5461321390919063ffffffff16565b600b81905550505056fe45524332303a207472616e7366657220746f20746865207a65726f2061646472657373416d6f756e74206d757374206265206c657373207468616e20746f74616c207265666c656374696f6e734f776e61626c653a206e6577206f776e657220697320746865207a65726f206164647265737345524332303a20617070726f766520746f20746865207a65726f20616464726573735472616e7366657220616d6f756e74206578636565647320746865206d61785478416d6f756e742e536166654d6174683a206d756c7469706c69636174696f6e206f766572666c6f7745524332303a207472616e7366657220616d6f756e74206578636565647320616c6c6f77616e63655472616e7366657220616d6f756e74206d7573742062652067726561746572207468616e207a65726f45524332303a207472616e736665722066726f6d20746865207a65726f206164647265737345524332303a20617070726f76652066726f6d20746865207a65726f20616464726573734578636c75646564206164647265737365732063616e6e6f742063616c6c20746869732066756e6374696f6e596f7520646f6e27742068617665207065726d697373696f6e20746f20756e6c6f636b45524332303a2064656372656173656420616c6c6f77616e63652062656c6f77207a65726fa2646970667358221220045689d4005990494d89a5143407b3e5bc23400d911c00bcefd84eb1e3120bc064736f6c634300060c0033

Deployed ByteCode Sourcemap

32022:18365:0:-:0;;;;;;;;;;;;;;;;;;;;;;;;;;;;;;;;;;;;;;;;;;;;;;;;;;;;;;;;;;;;;;;;;;;;;;;;;;;;;;;;;;;;;;;;;;;;;;;;;;;;;;;;;;;;;;;;;;;;;;;;;;;;;;;;;;;;;;;;;;;;;;;;;;;;;;;;;;;;;;;;;;;;;;;;;;;;;;;;;;;;;;;;;;;;;;;;;;;;;;;;;;;;;;;;;;;;;;;;;;;;;;;;;;;;;;;;;;;;;;;;;;;;;;;;;;;;;;;;;;;;;;;;39482:98;;;;;;;;;;;;;;;;;;;;;;;;;;;;;;;;;;;;;;;;;;;:::i;:::-;;34417:83;;;;;;;;;;;;;:::i;:::-;;;;;;;;;;;;;;;;;;;;;;;;;;;;;;;;;;;;;;;;;;;;;;;;;;;;;;;;;;;;;;;;;;;;;;;;;;;;;;;;;;;;;;;;;;;;;;;;;;;;;;;;35329:161;;;;;;;;;;;;;;;;;;;;;;;;;;;;;;;;;;;;;;;;;;;;;;;;;;;;;;:::i;:::-;;;;;;;;;;;;;;;;;;;;;36450:87;;;;;;;;;;;;;:::i;:::-;;;;;;;;;;;;;;;;;;;32983:51;;;;;;;;;;;;;:::i;:::-;;;;;;;;;;;;;;;;;;;;;34694:95;;;;;;;;;;;;;:::i;:::-;;;;;;;;;;;;;;;;;;;35498:313;;;;;;;;;;;;;;;;;;;;;;;;;;;;;;;;;;;;;;;;;;;;;;;;;;;;;;;;;;;;;;;;;:::i;:::-;;;;;;;;;;;;;;;;;;;;;37374:253;;;;;;;;;;;;;;;;;;;;;;;;;;;;;;;;;;;;;;;;;;;:::i;:::-;;;;;;;;;;;;;;;;;;;34603:83;;;;;;;;;;;;;:::i;:::-;;;;;;;;;;;;;;;;;;;;;38090:479;;;;;;;;;;;;;;;;;;;;;;;;;;;;;;;;;;;;;;;;;;;;;:::i;:::-;;35819:218;;;;;;;;;;;;;;;;;;;;;;;;;;;;;;;;;;;;;;;;;;;;;;;;;;;;;;:::i;:::-;;;;;;;;;;;;;;;;;;;;;32795:26;;;;;;;;;;;;;:::i;:::-;;;;;;;;;;;;;;;;;;;36545:377;;;;;;;;;;;;;;;;;;;;;;;;;;;;;;;;;;;;;;;;;;;:::i;:::-;;39237:111;;;;;;;;;;;;;;;;;;;;;;;;;;;;;;;;;;;;;;;;;;;;;:::i;:::-;;36930:436;;;;;;;;;;;;;;;;;;;;;;;;;;;;;;;;;;;;;;;;;;;;;;;;;;;;;;:::i;:::-;;;;;;;;;;;;;;;;;;;33041:38;;;;;;;;;;;;;:::i;:::-;;;;;;;;;;;;;;;;;;;;;33120:40;;;;;;;;;;;;;:::i;:::-;;;;;;;;;;;;;;;;;;;;;37635:447;;;;;;;;;;;;;;;;;;;;;;;;;;;;;;;;;;;;;;;;;;;;;:::i;:::-;;43379:123;;;;;;;;;;;;;;;;;;;;;;;;;;;;;;;;;;;;;;;;;;;;;:::i;:::-;;;;;;;;;;;;;;;;;;;;;32882:32;;;;;;;;;;;;;:::i;:::-;;;;;;;;;;;;;;;;;;;34797:198;;;;;;;;;;;;;;;;;;;;;;;;;;;;;;;;;;;;;;;;;;;;;:::i;:::-;;;;;;;;;;;;;;;;;;;22617:148;;;;;;;;;;;;;:::i;:::-;;33173:53;;;;;;;;;;;;;:::i;:::-;;;;;;;;;;;;;;;;;;;36322:120;;;;;;;;;;;;;;;;;;;;;;;;;;;;;;;;;;;;;;;;;;;;;:::i;:::-;;;;;;;;;;;;;;;;;;;;;21974:79;;;;;;;;;;;;;:::i;:::-;;;;;;;;;;;;;;;;;;;;;39592:122;;;;;;;;;;;;;;;;;;;;;;;;;;;;;;;;;;;;;;;;;;;:::i;:::-;;34508:87;;;;;;;;;;;;;:::i;:::-;;;;;;;;;;;;;;;;;;;;;;;;;;;;;;;;;;;;;;;;;;;;;;;;;;;;;;;;;;;;;;;;;;;;;;;;;;;;;;;;;;;;;;;;;;;;;;;;;;;;;;;;36045:269;;;;;;;;;;;;;;;;;;;;;;;;;;;;;;;;;;;;;;;;;;;;;;;;;;;;;;:::i;:::-;;;;;;;;;;;;;;;;;;;;;23627:293;;;;;;;;;;;;;:::i;:::-;;35003:167;;;;;;;;;;;;;;;;;;;;;;;;;;;;;;;;;;;;;;;;;;;;;;;;;;;;;;:::i;:::-;;;;;;;;;;;;;;;;;;;;;23172:89;;;;;;;;;;;;;:::i;:::-;;;;;;;;;;;;;;;;;;;39895:171;;;;;;;;;;;;;;;;;;;;;;;;;;;;;;;;;;;;;;;;;;;;;:::i;:::-;;39725:162;;;;;;;;;;;;;;;;;;;;;;;;;;;;;;;;;;;;;;;;;;;:::i;:::-;;23337:214;;;;;;;;;;;;;;;;;;;;;;;;;;;;;;;;;;;;;;;;;;;:::i;:::-;;35178:143;;;;;;;;;;;;;;;;;;;;;;;;;;;;;;;;;;;;;;;;;;;;;;;;;;;;;;;;:::i;:::-;;;;;;;;;;;;;;;;;;;39360:110;;;;;;;;;;;;;;;;;;;;;;;;;;;;;;;;;;;;;;;;;;;;;:::i;:::-;;22920:244;;;;;;;;;;;;;;;;;;;;;;;;;;;;;;;;;;;;;;;;;;;;;:::i;:::-;;39482:98;22196:12;:10;:12::i;:::-;22186:22;;:6;;;;;;;;;;:22;;;22178:67;;;;;;;;;;;;;;;;;;;;;;;;;;;;;;;;;;;;;;;;;39566:6:::1;39556:7;:16;;;;39482:98:::0;:::o;34417:83::-;34454:13;34487:5;34480:12;;;;;;;;;;;;;;;;;;;;;;;;;;;;;;;;;;;;;;;;;;;;;;;;;;;;;;;;;;;;;;;;;;;;;;;;;;;;;;;;;;;;;;;;;;;;;;;;;;;;;;;;;;;;;;;;;;;;;;;;;34417:83;:::o;35329:161::-;35404:4;35421:39;35430:12;:10;:12::i;:::-;35444:7;35453:6;35421:8;:39::i;:::-;35478:4;35471:11;;35329:161;;;;:::o;36450:87::-;36492:7;36519:10;;36512:17;;36450:87;:::o;32983:51::-;;;:::o;34694:95::-;34747:7;34774;;34767:14;;34694:95;:::o;35498:313::-;35596:4;35613:36;35623:6;35631:9;35642:6;35613:9;:36::i;:::-;35660:121;35669:6;35677:12;:10;:12::i;:::-;35691:89;35729:6;35691:89;;;;;;;;;;;;;;;;;:11;:19;35703:6;35691:19;;;;;;;;;;;;;;;:33;35711:12;:10;:12::i;:::-;35691:33;;;;;;;;;;;;;;;;:37;;:89;;;;;:::i;:::-;35660:8;:121::i;:::-;35799:4;35792:11;;35498:313;;;;;:::o;37374:253::-;37440:7;37479;;37468;:18;;37460:73;;;;;;;;;;;;;;;;;;;;;;;;;;;;;;;;;;;;;;;;;37544:19;37567:10;:8;:10::i;:::-;37544:33;;37595:24;37607:11;37595:7;:11;;:24;;;;:::i;:::-;37588:31;;;37374:253;;;:::o;34603:83::-;34644:5;34669:9;;;;;;;;;;;34662:16;;34603:83;:::o;38090:479::-;22196:12;:10;:12::i;:::-;22186:22;;:6;;;;;;;;;;:22;;;22178:67;;;;;;;;;;;;;;;;;;;;;;;;;;;;;;;;;;;;;;;;;38172:11:::1;:20;38184:7;38172:20;;;;;;;;;;;;;;;;;;;;;;;;;38164:60;;;;;;;;;;;;;;;;;;;;;;;;;;;::::0;::::1;;;;;;;;;;;;;38240:9;38235:327;38259:9;:16;;;;38255:1;:20;38235:327;;;38317:7;38301:23;;:9;38311:1;38301:12;;;;;;;;;;;;;;;;;;;;;;;;;:23;;;38297:254;;;38360:9;38389:1;38370:9;:16;;;;:20;38360:31;;;;;;;;;;;;;;;;;;;;;;;;;38345:9;38355:1;38345:12;;;;;;;;;;;;;;;;:46;;;;;;;;;;;;;;;;;;38429:1;38410:7;:16;38418:7;38410:16;;;;;;;;;;;;;;;:20;;;;38472:5;38449:11;:20;38461:7;38449:20;;;;;;;;;;;;;;;;:28;;;;;;;;;;;;;;;;;;38496:9;:15;;;;;;;;;;;;;;;;;;;;;;;;;;;;;;;;;38530:5;;38297:254;38277:3;;;;;;;38235:327;;;;38090:479:::0;:::o;35819:218::-;35907:4;35924:83;35933:12;:10;:12::i;:::-;35947:7;35956:50;35995:10;35956:11;:25;35968:12;:10;:12::i;:::-;35956:25;;;;;;;;;;;;;;;:34;35982:7;35956:34;;;;;;;;;;;;;;;;:38;;:50;;;;:::i;:::-;35924:8;:83::i;:::-;36025:4;36018:11;;35819:218;;;;:::o;32795:26::-;;;;:::o;36545:377::-;36597:14;36614:12;:10;:12::i;:::-;36597:29;;36646:11;:19;36658:6;36646:19;;;;;;;;;;;;;;;;;;;;;;;;;36645:20;36637:77;;;;;;;;;;;;;;;;;;;;;;;;;;;;;;;;;;;;;;;;;36726:15;36750:19;36761:7;36750:10;:19::i;:::-;36725:44;;;;;;;36798:28;36818:7;36798;:15;36806:6;36798:15;;;;;;;;;;;;;;;;:19;;:28;;;;:::i;:::-;36780:7;:15;36788:6;36780:15;;;;;;;;;;;;;;;:46;;;;36847:20;36859:7;36847;;:11;;:20;;;;:::i;:::-;36837:7;:30;;;;36891:23;36906:7;36891:10;;:14;;:23;;;;:::i;:::-;36878:10;:36;;;;36545:377;;;:::o;39237:111::-;22196:12;:10;:12::i;:::-;22186:22;;:6;;;;;;;;;;:22;;;22178:67;;;;;;;;;;;;;;;;;;;;;;;;;;;;;;;;;;;;;;;;;39336:4:::1;39306:18;:27;39325:7;39306:27;;;;;;;;;;;;;;;;:34;;;;;;;;;;;;;;;;;;39237:111:::0;:::o;36930:436::-;37020:7;37059;;37048;:18;;37040:62;;;;;;;;;;;;;;;;;;;;;;;;;;;;;;;;;;;;;;;;;37118:17;37113:246;;37153:15;37177:19;37188:7;37177:10;:19::i;:::-;37152:44;;;;;;;37218:7;37211:14;;;;;37113:246;37260:23;37291:19;37302:7;37291:10;:19::i;:::-;37258:52;;;;;;;37332:15;37325:22;;;36930:436;;;;;:::o;33041:38::-;;;:::o;33120:40::-;;;;;;;;;;;;;:::o;37635:447::-;22196:12;:10;:12::i;:::-;22186:22;;:6;;;;;;;;;;:22;;;22178:67;;;;;;;;;;;;;;;;;;;;;;;;;;;;;;;;;;;;;;;;;37832:11:::1;:20;37844:7;37832:20;;;;;;;;;;;;;;;;;;;;;;;;;37831:21;37823:61;;;;;;;;;;;;;;;;;;;;;;;;;;;::::0;::::1;;;;;;;;;;;;;37917:1;37898:7;:16;37906:7;37898:16;;;;;;;;;;;;;;;;:20;37895:108;;;37954:37;37974:7;:16;37982:7;37974:16;;;;;;;;;;;;;;;;37954:19;:37::i;:::-;37935:7;:16;37943:7;37935:16;;;;;;;;;;;;;;;:56;;;;37895:108;38036:4;38013:11;:20;38025:7;38013:20;;;;;;;;;;;;;;;;:27;;;;;;;;;;;;;;;;;;38051:9;38066:7;38051:23;;;;;;;;;;;;;;;;;;;;;;;;;;;;;;;;;;;;;;;;;;;;;;;;37635:447:::0;:::o;43379:123::-;43443:4;43467:18;:27;43486:7;43467:27;;;;;;;;;;;;;;;;;;;;;;;;;43460:34;;43379:123;;;:::o;32882:32::-;;;;:::o;34797:198::-;34863:7;34887:11;:20;34899:7;34887:20;;;;;;;;;;;;;;;;;;;;;;;;;34883:49;;;34916:7;:16;34924:7;34916:16;;;;;;;;;;;;;;;;34909:23;;;;34883:49;34950:37;34970:7;:16;34978:7;34970:16;;;;;;;;;;;;;;;;34950:19;:37::i;:::-;34943:44;;34797:198;;;;:::o;22617:148::-;22196:12;:10;:12::i;:::-;22186:22;;:6;;;;;;;;;;:22;;;22178:67;;;;;;;;;;;;;;;;;;;;;;;;;;;;;;;;;;;;;;;;;22724:1:::1;22687:40;;22708:6;::::0;::::1;;;;;;;;22687:40;;;;;;;;;;;;22755:1;22738:6:::0;::::1;:19;;;;;;;;;;;;;;;;;;22617:148::o:0;33173:53::-;;;;:::o;36322:120::-;36390:4;36414:11;:20;36426:7;36414:20;;;;;;;;;;;;;;;;;;;;;;;;;36407:27;;36322:120;;;:::o;21974:79::-;22012:7;22039:6;;;;;;;;;;;22032:13;;21974:79;:::o;39592:122::-;22196:12;:10;:12::i;:::-;22186:22;;:6;;;;;;;;;;:22;;;22178:67;;;;;;;;;;;;;;;;;;;;;;;;;;;;;;;;;;;;;;;;;39694:12:::1;39678:13;:28;;;;39592:122:::0;:::o;34508:87::-;34547:13;34580:7;34573:14;;;;;;;;;;;;;;;;;;;;;;;;;;;;;;;;;;;;;;;;;;;;;;;;;;;;;;;;;;;;;;;;;;;;;;;;;;;;;;;;;;;;;;;;;;;;;;;;;;;;;;;;;;;;;;;;;;;;;;;;;34508:87;:::o;36045:269::-;36138:4;36155:129;36164:12;:10;:12::i;:::-;36178:7;36187:96;36226:15;36187:96;;;;;;;;;;;;;;;;;:11;:25;36199:12;:10;:12::i;:::-;36187:25;;;;;;;;;;;;;;;:34;36213:7;36187:34;;;;;;;;;;;;;;;;:38;;:96;;;;;:::i;:::-;36155:8;:129::i;:::-;36302:4;36295:11;;36045:269;;;;:::o;23627:293::-;23697:10;23679:28;;:14;;;;;;;;;;;:28;;;23671:76;;;;;;;;;;;;;;;;;;;;;;;;;;;;;;;;;;;;;;;;;23772:9;;23766:3;:15;23758:60;;;;;;;;;;;;;;;;;;;;;;;;;;;;;;;;;;;;;;;;;23863:14;;;;;;;;;;;23834:44;;23855:6;;;;;;;;;;23834:44;;;;;;;;;;;;23898:14;;;;;;;;;;;23889:6;;:23;;;;;;;;;;;;;;;;;;23627:293::o;35003:167::-;35081:4;35098:42;35108:12;:10;:12::i;:::-;35122:9;35133:6;35098:9;:42::i;:::-;35158:4;35151:11;;35003:167;;;;:::o;23172:89::-;23217:7;23244:9;;23237:16;;23172:89;:::o;39895:171::-;22196:12;:10;:12::i;:::-;22186:22;;:6;;;;;;;;;;:22;;;22178:67;;;;;;;;;;;;;;;;;;;;;;;;;;;;;;;;;;;;;;;;;39996:8:::1;39972:21;;:32;;;;;;;;;;;;;;;;;;40020:38;40049:8;40020:38;;;;;;;;;;;;;;;;;;;;39895:171:::0;:::o;39725:162::-;22196:12;:10;:12::i;:::-;22186:22;;:6;;;;;;;;;;:22;;;22178:67;;;;;;;;;;;;;;;;;;;;;;;;;;;;;;;;;;;;;;;;;39819:60:::1;39863:5;39819:25;39831:12;39819:7;;:11;;:25;;;;:::i;:::-;:29;;:60;;;;:::i;:::-;39804:12;:75;;;;39725:162:::0;:::o;23337:214::-;22196:12;:10;:12::i;:::-;22186:22;;:6;;;;;;;;;;:22;;;22178:67;;;;;;;;;;;;;;;;;;;;;;;;;;;;;;;;;;;;;;;;;23418:6:::1;::::0;::::1;;;;;;;;23401:14;;:23;;;;;;;;;;;;;;;;;;23452:1;23435:6:::0;::::1;:19;;;;;;;;;;;;;;;;;;23483:4;23477:3;:10;23465:9;:22;;;;23540:1;23503:40;;23524:6;::::0;::::1;;;;;;;;23503:40;;;;;;;;;;;;23337:214:::0;:::o;35178:143::-;35259:7;35286:11;:18;35298:5;35286:18;;;;;;;;;;;;;;;:27;35305:7;35286:27;;;;;;;;;;;;;;;;35279:34;;35178:143;;;;:::o;39360:110::-;22196:12;:10;:12::i;:::-;22186:22;;:6;;;;;;;;;;:22;;;22178:67;;;;;;;;;;;;;;;;;;;;;;;;;;;;;;;;;;;;;;;;;39457:5:::1;39427:18;:27;39446:7;39427:27;;;;;;;;;;;;;;;;:35;;;;;;;;;;;;;;;;;;39360:110:::0;:::o;22920:244::-;22196:12;:10;:12::i;:::-;22186:22;;:6;;;;;;;;;;:22;;;22178:67;;;;;;;;;;;;;;;;;;;;;;;;;;;;;;;;;;;;;;;;;23029:1:::1;23009:22;;:8;:22;;;;23001:73;;;;;;;;;;;;;;;;;;;;;;;;;;;;;;;;;;;;;;;;;23119:8;23090:38;;23111:6;::::0;::::1;;;;;;;;23090:38;;;;;;;;;;;;23148:8;23139:6;::::0;:17:::1;;;;;;;;;;;;;;;;;;22920:244:::0;:::o;14382:106::-;14435:15;14470:10;14463:17;;14382:106;:::o;43510:337::-;43620:1;43603:19;;:5;:19;;;;43595:68;;;;;;;;;;;;;;;;;;;;;;;;;;;;;;;;;;;;;;;;;43701:1;43682:21;;:7;:21;;;;43674:68;;;;;;;;;;;;;;;;;;;;;;;;;;;;;;;;;;;;;;;;;43785:6;43755:11;:18;43767:5;43755:18;;;;;;;;;;;;;;;:27;43774:7;43755:27;;;;;;;;;;;;;;;:36;;;;43823:7;43807:32;;43816:5;43807:32;;;43832:6;43807:32;;;;;;;;;;;;;;;;;;43510:337;;;:::o;43855:1813::-;43993:1;43977:18;;:4;:18;;;;43969:68;;;;;;;;;;;;;;;;;;;;;;;;;;;;;;;;;;;;;;;;;44070:1;44056:16;;:2;:16;;;;44048:64;;;;;;;;;;;;;;;;;;;;;;;;;;;;;;;;;;;;;;;;;44140:1;44131:6;:10;44123:64;;;;;;;;;;;;;;;;;;;;;;;;;;;;;;;;;;;;;;;;;44209:7;:5;:7::i;:::-;44201:15;;:4;:15;;;;:32;;;;;44226:7;:5;:7::i;:::-;44220:13;;:2;:13;;;;44201:32;44198:125;;;44266:12;;44256:6;:22;;44248:75;;;;;;;;;;;;;;;;;;;;;;;;;;;;;;;;;;;;;;;;;44198:125;44618:28;44649:24;44667:4;44649:9;:24::i;:::-;44618:55;;44721:12;;44697:20;:36;44694:112;;44782:12;;44759:35;;44694:112;44826:24;44877:29;;44853:20;:53;;44826:80;;44935:19;:53;;;;;44972:16;;;;;;;;;;;44971:17;44935:53;:91;;;;;45013:13;45005:21;;:4;:21;;;;44935:91;:129;;;;;45043:21;;;;;;;;;;;44935:129;44917:318;;;45114:29;;45091:52;;45187:36;45202:20;45187:14;:36::i;:::-;44917:318;45316:12;45331:4;45316:19;;45443:18;:24;45462:4;45443:24;;;;;;;;;;;;;;;;;;;;;;;;;:50;;;;45471:18;:22;45490:2;45471:22;;;;;;;;;;;;;;;;;;;;;;;;;45443:50;45440:96;;;45519:5;45509:15;;45440:96;45622:38;45637:4;45642:2;45645:6;45652:7;45622:14;:38::i;:::-;43855:1813;;;;;;:::o;10792:192::-;10878:7;10911:1;10906;:6;;10914:12;10898:29;;;;;;;;;;;;;;;;;;;;;;;;;;;;;;;;;;;;;;;;;;;;;;;;;;;;;;;;;;;;;;;;;;;;;;;;;;;;;;;;;;;;;;;;;;;;;;;;;;;;;;;;;;;;;;;;;10938:9;10954:1;10950;:5;10938:17;;10975:1;10968:8;;;10792:192;;;;;:::o;41529:163::-;41570:7;41591:15;41608;41627:19;:17;:19::i;:::-;41590:56;;;;41664:20;41676:7;41664;:11;;:20;;;;:::i;:::-;41657:27;;;;41529:163;:::o;12190:132::-;12248:7;12275:39;12279:1;12282;12275:39;;;;;;;;;;;;;;;;;:3;:39::i;:::-;12268:46;;12190:132;;;;:::o;9889:181::-;9947:7;9967:9;9983:1;9979;:5;9967:17;;10008:1;10003;:6;;9995:46;;;;;;;;;;;;;;;;;;;;;;;;;;;;;;;;;;;;;;;;;10061:1;10054:8;;;9889:181;;;;:::o;40327:419::-;40386:7;40395;40404;40413;40422;40431;40452:23;40477:12;40491:18;40513:20;40525:7;40513:11;:20::i;:::-;40451:82;;;;;;40545:15;40562:23;40587:12;40603:50;40615:7;40624:4;40630:10;40642;:8;:10::i;:::-;40603:11;:50::i;:::-;40544:109;;;;;;40672:7;40681:15;40698:4;40704:15;40721:4;40727:10;40664:74;;;;;;;;;;;;;;;;;;40327:419;;;;;;;:::o;10353:136::-;10411:7;10438:43;10442:1;10445;10438:43;;;;;;;;;;;;;;;;;:3;:43::i;:::-;10431:50;;10353:136;;;;:::o;11243:471::-;11301:7;11551:1;11546;:6;11542:47;;;11576:1;11569:8;;;;11542:47;11601:9;11617:1;11613;:5;11601:17;;11646:1;11641;11637;:5;;;;;;:10;11629:56;;;;;;;;;;;;;;;;;;;;;;;;;;;;;;;;;;;;;;;;;11705:1;11698:8;;;11243:471;;;;;:::o;45676:985::-;33629:4;33610:16;;:23;;;;;;;;;;;;;;;;;;45812:12:::1;45827:27;45852:1;45827:20;:24;;:27;;;;:::i;:::-;45812:42;;45865:17;45885:30;45910:4;45885:20;:24;;:30;;;;:::i;:::-;45865:50;;46193:22;46218:21;46193:46;;46284:22;46301:4;46284:16;:22::i;:::-;46437:18;46458:41;46484:14;46458:21;:25;;:41;;;;:::i;:::-;46437:62;;46549:35;46562:9;46573:10;46549:12;:35::i;:::-;46610:43;46625:4;46631:10;46643:9;46610:43;;;;;;;;;;;;;;;;;;;;;;;;;;;;;;33644:1;;;;33675:5:::0;33656:16;;:24;;;;;;;;;;;;;;;;;;45676:985;:::o;47860:834::-;47971:7;47967:40;;47993:14;:12;:14::i;:::-;47967:40;48032:11;:19;48044:6;48032:19;;;;;;;;;;;;;;;;;;;;;;;;;:46;;;;;48056:11;:22;48068:9;48056:22;;;;;;;;;;;;;;;;;;;;;;;;;48055:23;48032:46;48028:597;;;48095:48;48117:6;48125:9;48136:6;48095:21;:48::i;:::-;48028:597;;;48166:11;:19;48178:6;48166:19;;;;;;;;;;;;;;;;;;;;;;;;;48165:20;:46;;;;;48189:11;:22;48201:9;48189:22;;;;;;;;;;;;;;;;;;;;;;;;;48165:46;48161:464;;;48228:46;48248:6;48256:9;48267:6;48228:19;:46::i;:::-;48161:464;;;48297:11;:19;48309:6;48297:19;;;;;;;;;;;;;;;;;;;;;;;;;48296:20;:47;;;;;48321:11;:22;48333:9;48321:22;;;;;;;;;;;;;;;;;;;;;;;;;48320:23;48296:47;48292:333;;;48360:44;48378:6;48386:9;48397:6;48360:17;:44::i;:::-;48292:333;;;48426:11;:19;48438:6;48426:19;;;;;;;;;;;;;;;;;;;;;;;;;:45;;;;;48449:11;:22;48461:9;48449:22;;;;;;;;;;;;;;;;;;;;;;;;;48426:45;48422:203;;;48488:48;48510:6;48518:9;48529:6;48488:21;:48::i;:::-;48422:203;;;48569:44;48587:6;48595:9;48606:6;48569:17;:44::i;:::-;48422:203;48292:333;48161:464;48028:597;48649:7;48645:41;;48671:15;:13;:15::i;:::-;48645:41;47860:834;;;;:::o;41700:561::-;41750:7;41759;41779:15;41797:7;;41779:25;;41815:15;41833:7;;41815:25;;41862:9;41857:289;41881:9;:16;;;;41877:1;:20;41857:289;;;41947:7;41923;:21;41931:9;41941:1;41931:12;;;;;;;;;;;;;;;;;;;;;;;;;41923:21;;;;;;;;;;;;;;;;:31;:66;;;;41982:7;41958;:21;41966:9;41976:1;41966:12;;;;;;;;;;;;;;;;;;;;;;;;;41958:21;;;;;;;;;;;;;;;;:31;41923:66;41919:97;;;41999:7;;42008;;41991:25;;;;;;;;;41919:97;42041:34;42053:7;:21;42061:9;42071:1;42061:12;;;;;;;;;;;;;;;;;;;;;;;;;42053:21;;;;;;;;;;;;;;;;42041:7;:11;;:34;;;;:::i;:::-;42031:44;;42100:34;42112:7;:21;42120:9;42130:1;42120:12;;;;;;;;;;;;;;;;;;;;;;;;;42112:21;;;;;;;;;;;;;;;;42100:7;:11;;:34;;;;:::i;:::-;42090:44;;41899:3;;;;;;;41857:289;;;;42170:20;42182:7;;42170;;:11;;:20;;;;:::i;:::-;42160:7;:30;42156:61;;;42200:7;;42209;;42192:25;;;;;;;;42156:61;42236:7;42245;42228:25;;;;;;41700:561;;;:::o;12818:278::-;12904:7;12936:1;12932;:5;12939:12;12924:28;;;;;;;;;;;;;;;;;;;;;;;;;;;;;;;;;;;;;;;;;;;;;;;;;;;;;;;;;;;;;;;;;;;;;;;;;;;;;;;;;;;;;;;;;;;;;;;;;;;;;;;;;;;;;;;;;12963:9;12979:1;12975;:5;;;;;;12963:17;;13087:1;13080:8;;;12818:278;;;;;:::o;40754:330::-;40814:7;40823;40832;40852:12;40867:24;40883:7;40867:15;:24::i;:::-;40852:39;;40902:18;40923:30;40945:7;40923:21;:30::i;:::-;40902:51;;40964:23;40990:33;41012:10;40990:17;41002:4;40990:7;:11;;:17;;;;:::i;:::-;:21;;:33;;;;:::i;:::-;40964:59;;41042:15;41059:4;41065:10;41034:42;;;;;;;;;40754:330;;;;;:::o;41092:429::-;41207:7;41216;41225;41245:15;41263:24;41275:11;41263:7;:11;;:24;;;;:::i;:::-;41245:42;;41298:12;41313:21;41322:11;41313:4;:8;;:21;;;;:::i;:::-;41298:36;;41345:18;41366:27;41381:11;41366:10;:14;;:27;;;;:::i;:::-;41345:48;;41404:23;41430:33;41452:10;41430:17;41442:4;41430:7;:11;;:17;;;;:::i;:::-;:21;;:33;;;;:::i;:::-;41404:59;;41482:7;41491:15;41508:4;41474:39;;;;;;;;;;41092:429;;;;;;;;:::o;46669:589::-;46795:21;46833:1;46819:16;;;;;;;;;;;;;;;;;;;;;;;;;;;;;;;;;;;;;;;;;;;;;;;;;;;46795:40;;46864:4;46846;46851:1;46846:7;;;;;;;;;;;;;:23;;;;;;;;;;;46890:15;:20;;;:22;;;;;;;;;;;;;;;;;;;;;;;;;;;;;;;;;;;;;;;;;;;;;;;;;;;;;;;;;;;;;;;;;;;;;;;;;;;;;;;46880:4;46885:1;46880:7;;;;;;;;;;;;;:32;;;;;;;;;;;46925:62;46942:4;46957:15;46975:11;46925:8;:62::i;:::-;47026:15;:66;;;47107:11;47133:1;47177:4;47204;47224:15;47026:224;;;;;;;;;;;;;;;;;;;;;;;;;;;;;;;;;;;;;;;;;;;;;;;;;;;;;;;;;;;;;;;;;;;;;;;;;;;;;;;;;;;;;;;;;;;;;;;;;;;;;;;;;;;;;;;;;;;;;;;;;;;;;;;;;;;;;;;;;;;;;;46669:589;;:::o;47266:513::-;47414:62;47431:4;47446:15;47464:11;47414:8;:62::i;:::-;47519:15;:31;;;47558:9;47591:4;47611:11;47637:1;47680;47723:7;:5;:7::i;:::-;47745:15;47519:252;;;;;;;;;;;;;;;;;;;;;;;;;;;;;;;;;;;;;;;;;;;;;;;;;;;;;;;;;;;;;;;;;;;;;;;;;;;;;;;;;;;;;;;;;;;;;;;;;;;;;;;;;;;;;;;;;;;;;;;;;;;;;;;;;;;;;;;;;;;;;;;;;47266:513;;:::o;42980:250::-;43037:1;43026:7;;:12;:34;;;;;43059:1;43042:13;;:18;43026:34;43023:46;;;43062:7;;43023:46;43107:7;;43089:15;:25;;;;43149:13;;43125:21;:37;;;;43193:1;43183:7;:11;;;;43221:1;43205:13;:17;;;;42980:250;:::o;49806:566::-;49909:15;49926:23;49951:12;49965:23;49990:12;50004:18;50026:19;50037:7;50026:10;:19::i;:::-;49908:137;;;;;;;;;;;;50074:28;50094:7;50074;:15;50082:6;50074:15;;;;;;;;;;;;;;;;:19;;:28;;;;:::i;:::-;50056:7;:15;50064:6;50056:15;;;;;;;;;;;;;;;:46;;;;50131:28;50151:7;50131;:15;50139:6;50131:15;;;;;;;;;;;;;;;;:19;;:28;;;;:::i;:::-;50113:7;:15;50121:6;50113:15;;;;;;;;;;;;;;;:46;;;;50191:39;50214:15;50191:7;:18;50199:9;50191:18;;;;;;;;;;;;;;;;:22;;:39;;;;:::i;:::-;50170:7;:18;50178:9;50170:18;;;;;;;;;;;;;;;:60;;;;50244:26;50259:10;50244:14;:26::i;:::-;50281:23;50293:4;50299;50281:11;:23::i;:::-;50337:9;50320:44;;50329:6;50320:44;;;50348:15;50320:44;;;;;;;;;;;;;;;;;;49806:566;;;;;;;;;:::o;49212:586::-;49313:15;49330:23;49355:12;49369:23;49394:12;49408:18;49430:19;49441:7;49430:10;:19::i;:::-;49312:137;;;;;;;;;;;;49478:28;49498:7;49478;:15;49486:6;49478:15;;;;;;;;;;;;;;;;:19;;:28;;;;:::i;:::-;49460:7;:15;49468:6;49460:15;;;;;;;;;;;;;;;:46;;;;49538:39;49561:15;49538:7;:18;49546:9;49538:18;;;;;;;;;;;;;;;;:22;;:39;;;;:::i;:::-;49517:7;:18;49525:9;49517:18;;;;;;;;;;;;;;;:60;;;;49609:39;49632:15;49609:7;:18;49617:9;49609:18;;;;;;;;;;;;;;;;:22;;:39;;;;:::i;:::-;49588:7;:18;49596:9;49588:18;;;;;;;;;;;;;;;:60;;;;49670:26;49685:10;49670:14;:26::i;:::-;49707:23;49719:4;49725;49707:11;:23::i;:::-;49763:9;49746:44;;49755:6;49746:44;;;49774:15;49746:44;;;;;;;;;;;;;;;;;;49212:586;;;;;;;;;:::o;48702:502::-;48801:15;48818:23;48843:12;48857:23;48882:12;48896:18;48918:19;48929:7;48918:10;:19::i;:::-;48800:137;;;;;;;;;;;;48966:28;48986:7;48966;:15;48974:6;48966:15;;;;;;;;;;;;;;;;:19;;:28;;;;:::i;:::-;48948:7;:15;48956:6;48948:15;;;;;;;;;;;;;;;:46;;;;49026:39;49049:15;49026:7;:18;49034:9;49026:18;;;;;;;;;;;;;;;;:22;;:39;;;;:::i;:::-;49005:7;:18;49013:9;49005:18;;;;;;;;;;;;;;;:60;;;;49076:26;49091:10;49076:14;:26::i;:::-;49113:23;49125:4;49131;49113:11;:23::i;:::-;49169:9;49152:44;;49161:6;49152:44;;;49180:15;49152:44;;;;;;;;;;;;;;;;;;48702:502;;;;;;;;;:::o;38579:642::-;38682:15;38699:23;38724:12;38738:23;38763:12;38777:18;38799:19;38810:7;38799:10;:19::i;:::-;38681:137;;;;;;;;;;;;38847:28;38867:7;38847;:15;38855:6;38847:15;;;;;;;;;;;;;;;;:19;;:28;;;;:::i;:::-;38829:7;:15;38837:6;38829:15;;;;;;;;;;;;;;;:46;;;;38904:28;38924:7;38904;:15;38912:6;38904:15;;;;;;;;;;;;;;;;:19;;:28;;;;:::i;:::-;38886:7;:15;38894:6;38886:15;;;;;;;;;;;;;;;:46;;;;38964:39;38987:15;38964:7;:18;38972:9;38964:18;;;;;;;;;;;;;;;;:22;;:39;;;;:::i;:::-;38943:7;:18;38951:9;38943:18;;;;;;;;;;;;;;;:60;;;;39035:39;39058:15;39035:7;:18;39043:9;39035:18;;;;;;;;;;;;;;;;:22;;:39;;;;:::i;:::-;39014:7;:18;39022:9;39014:18;;;;;;;;;;;;;;;:60;;;;39093:26;39108:10;39093:14;:26::i;:::-;39130:23;39142:4;39148;39130:11;:23::i;:::-;39186:9;39169:44;;39178:6;39169:44;;;39197:15;39169:44;;;;;;;;;;;;;;;;;;38579:642;;;;;;;;;:::o;43242:125::-;43296:15;;43286:7;:25;;;;43338:21;;43322:13;:37;;;;43242:125::o;42640:154::-;42704:7;42731:55;42770:5;42731:20;42743:7;;42731;:11;;:20;;;;:::i;:::-;:24;;:55;;;;:::i;:::-;42724:62;;42640:154;;;:::o;42802:166::-;42872:7;42899:61;42944:5;42899:26;42911:13;;42899:7;:11;;:26;;;;:::i;:::-;:30;;:61;;;;:::i;:::-;42892:68;;42802:166;;;:::o;42273:355::-;42336:19;42359:10;:8;:10::i;:::-;42336:33;;42380:18;42401:27;42416:11;42401:10;:14;;:27;;;;:::i;:::-;42380:48;;42464:38;42491:10;42464:7;:22;42480:4;42464:22;;;;;;;;;;;;;;;;:26;;:38;;;;:::i;:::-;42439:7;:22;42455:4;42439:22;;;;;;;;;;;;;;;:63;;;;42516:11;:26;42536:4;42516:26;;;;;;;;;;;;;;;;;;;;;;;;;42513:107;;;42582:38;42609:10;42582:7;:22;42598:4;42582:22;;;;;;;;;;;;;;;;:26;;:38;;;;:::i;:::-;42557:7;:22;42573:4;42557:22;;;;;;;;;;;;;;;:63;;;;42513:107;42273:355;;;:::o;40172:147::-;40250:17;40262:4;40250:7;;:11;;:17;;;;:::i;:::-;40240:7;:27;;;;40291:20;40306:4;40291:10;;:14;;:20;;;;:::i;:::-;40278:10;:33;;;;40172:147;;:::o

Swarm Source

ipfs://045689d4005990494d89a5143407b3e5bc23400d911c00bcefd84eb1e3120bc0
Block Transaction Gas Used Reward
Age Block Fee Address BC Fee Address Voting Power Jailed Incoming
Block Uncle Number Difficulty Gas Used Reward
Loading
Loading
Make sure to use the "Vote Down" button for any spammy posts, and the "Vote Up" for interesting conversations.